GFSFLT1_sfc_thetae_000.txt.gz
Theta_e
330 330 332 334 334 338 343 347 347 349 345 342 334 331 329 329 330 328 327 328 329 323 325 329 330 329 329 329 330 332 332 330 329
325 329 331 332 335 338 342 345 347 348 343 340 336 332 330 330 330 331 332 332 328 325 328 330 329 330 329 330 332 331 331 330 330
321 327 331 332 334 337 342 344 347 349 344 341 337 336 332 332 332 332 331 329 328 329 327 329 329 329 330 330 330 330 329 328 328
319 324 328 332 334 336 342 344 346 348 345 342 338 337 335 334 334 333 330 330 329 329 329 330 332 332 331 329 328 330 329 329 329
321 322 327 330 333 334 339 341 345 346 346 343 341 340 337 336 336 333 331 330 330 330 330 329 328 328 328 328 330 330 329 328 329
318 322 323 329 330 331 336 339 343 345 346 344 343 341 337 332 329 329 330 330 329 329 328 327 328 326 324 327 328 328 329 329 329
319 322 323 327 329 330 335 339 342 344 345 345 342 340 338 330 327 327 329 330 329 329 328 327 326 326 328 328 327 327 328 328 328
319 319 324 325 329 331 335 337 340 343 344 343 341 339 336 332 331 329 328 329 329 329 328 328 327 328 328 328 328 330 329 329 327
317 320 328 326 329 333 336 338 339 340 341 341 340 337 336 334 333 331 330 331 330 329 328 327 327 328 328 326 329 328 328 325 321
314 317 320 329 332 333 338 340 340 337 338 339 336 335 334 333 333 332 332 332 330 329 328 326 327 327 325 326 326 324 323 328 320
315 316 316 319 328 333 339 343 341 337 334 335 335 333 333 334 334 333 332 330 329 329 329 328 328 325 327 326 325 324 321 325 319
316 315 317 320 323 330 335 341 340 334 333 334 333 332 332 333 334 333 331 329 329 330 328 327 327 328 328 324 325 321 319 320 318
319 322 323 324 326 337 335 337 335 333 332 331 331 332 333 334 334 332 330 330 331 332 330 328 331 329 327 322 324 318 316 317 317
320 324 327 328 337 338 335 334 334 331 330 330 332 333 332 332 334 333 332 332 333 331 328 324 323 324 324 323 321 319 314 313 313
316 316 323 327 335 336 335 334 334 331 329 330 331 329 328 327 323 332 336 333 331 327 325 323 322 322 320 320 317 313 313 313 310
317 319 321 326 331 334 333 333 330 324 324 328 328 326 326 323 325 324 326 331 329 325 322 320 319 319 317 314 314 310 309 309 310
328 328 325 332 329 326 324 327 327 327 330 328 325 324 324 324 322 322 327 328 327 324 321 318 317 316 313 310 306 305 306 307 306
326 324 324 326 327 325 323 326 326 328 327 325 324 324 325 324 325 327 322 314 313 316 306 310 312 310 310 311 305 304 300 300 303
323 322 323 324 326 326 323 323 322 323 325 323 320 318 323 323 326 321 313 310 306 301 299 298 297 301 302 301 301 298 297 295 295
322 322 323 324 325 324 324 324 323 325 325 324 322 325 324 322 320 319 312 308 308 306 305 300 297 296 298 299 298 295 295 294 295

GFSFLT1_sfc_thetae_003.txt.gz
Theta_e
329 330 333 336 338 338 339 344 346 348 348 347 342 339 334 326 327 326 327 326 325 323 325 327 327 327 326 324 326 329 330 329 327
325 329 330 336 338 338 340 343 345 348 348 348 341 334 330 326 327 326 325 327 326 321 322 327 327 326 325 326 329 330 328 327 328
323 328 330 333 338 336 341 344 346 347 349 347 341 333 330 329 329 328 329 329 325 323 325 326 326 325 326 326 328 328 326 325 326
322 326 328 331 334 336 339 344 345 346 346 345 341 335 331 329 329 331 329 328 326 325 325 324 325 326 327 328 326 325 326 326 327
319 323 327 331 333 334 335 338 342 344 345 343 341 337 333 331 332 331 329 327 327 326 325 325 328 328 327 326 325 326 327 327 327
318 320 324 329 331 332 333 337 340 342 345 344 342 337 334 333 332 332 329 329 328 327 326 326 324 324 322 321 322 324 325 326 326
319 320 322 326 329 331 333 334 339 341 344 345 343 339 336 334 334 334 332 331 329 326 325 324 323 323 322 322 323 324 324 324 325
316 318 319 322 325 328 330 332 337 340 344 345 343 341 338 335 334 333 332 331 329 327 327 327 324 323 322 324 325 326 324 325 326
315 317 320 321 324 327 327 330 335 339 342 344 344 342 339 336 332 330 329 329 328 326 328 326 324 323 324 324 326 325 327 328 322
317 318 323 319 322 324 327 330 335 337 341 344 343 342 339 335 334 331 328 329 327 327 327 326 323 323 324 324 323 323 323 328 320
315 318 321 326 325 325 330 333 335 337 340 341 341 339 337 336 334 332 329 326 327 328 327 326 324 324 324 322 324 321 320 325 321
316 316 316 320 329 331 329 334 337 337 337 338 338 336 335 335 335 332 329 329 330 330 326 325 325 324 324 324 323 320 319 319 319
314 314 318 320 323 328 329 331 337 334 332 334 334 335 335 336 335 333 329 330 330 330 328 327 326 326 323 323 324 318 316 315 316
318 320 324 324 328 333 332 333 332 331 331 332 335 334 333 332 330 330 331 329 327 327 329 326 326 328 327 326 322 321 313 313 314
316 316 319 323 327 333 333 332 331 326 328 330 332 332 331 325 326 330 328 323 322 325 327 326 323 322 321 321 320 312 312 311 312
323 323 325 326 325 334 329 329 329 327 327 330 330 329 326 325 327 328 326 323 321 321 324 324 322 320 319 318 315 310 309 309 309
324 325 324 327 328 326 324 326 329 328 330 329 329 326 324 325 325 324 327 325 323 327 324 321 320 320 318 312 308 306 305 306 304
325 324 324 327 325 324 324 328 328 327 327 328 326 325 325 323 326 323 324 315 312 318 312 312 317 315 313 308 304 304 302 302 302
322 320 322 324 322 322 323 325 324 326 326 325 323 322 323 322 322 326 323 312 306 301 301 298 297 301 305 301 302 299 296 295 294
320 321 321 322 322 322 322 321 322 322 321 321 320 321 320 321 319 320 313 311 308 305 302 298 295 295 297 298 297 296 295 294 294

GFSFLT1_sfc_thetae_006.txt.gz
Theta_e
327 330 332 333 333 335 337 339 341 343 344 344 347 349 348 347 341 333 333 332 330 329 329 332 334 332 333 329 330 333 335 334 333
324 329 332 334 335 336 337 339 341 343 345 346 346 347 347 340 336 330 330 331 330 329 329 331 331 331 331 329 330 335 334 333 333
322 327 331 333 336 337 338 340 342 344 346 346 346 346 343 339 333 330 329 329 329 327 327 330 331 331 330 330 330 333 333 331 332
321 324 329 331 336 339 340 340 342 344 346 347 346 343 339 335 330 329 329 330 330 328 327 328 329 329 329 330 330 332 330 330 331
318 323 328 331 336 338 339 339 341 343 345 346 348 345 337 333 330 331 330 330 330 329 328 328 329 330 330 331 332 332 330 330 333
318 322 325 329 332 335 337 337 340 342 345 346 348 345 335 332 330 331 331 331 330 329 328 328 328 330 330 329 329 328 328 330 331
316 320 324 327 329 332 334 335 338 341 344 346 346 342 336 333 331 332 332 332 330 330 329 328 328 329 328 327 327 327 329 330 330
318 317 320 324 328 329 331 332 335 339 342 344 345 339 337 335 334 334 333 332 332 331 329 329 329 328 327 328 327 327 329 330 329
317 318 319 321 326 328 329 331 331 337 340 342 345 341 338 338 336 335 334 334 333 330 329 328 328 327 328 327 328 325 326 331 330
318 318 320 319 321 324 326 328 331 335 339 343 344 342 341 339 336 333 331 332 333 330 328 328 328 328 328 328 329 322 323 327 330
316 318 320 320 320 323 325 327 330 335 338 341 343 342 342 338 335 333 331 330 329 331 328 327 328 328 328 328 328 321 320 324 330
317 320 322 325 325 325 326 329 332 334 337 340 342 341 340 337 336 334 333 332 329 330 329 329 330 330 329 327 329 320 319 322 327
315 318 321 324 328 329 331 331 335 334 335 338 339 340 339 338 338 334 330 332 331 330 331 330 332 329 328 324 327 319 318 320 325
320 322 325 328 330 332 332 334 335 333 333 335 338 338 339 339 338 336 333 330 329 328 330 330 328 325 323 327 327 327 317 313 322
321 322 324 326 327 331 335 334 335 332 332 334 335 335 333 332 332 333 329 326 326 327 326 324 326 326 322 320 324 317 316 310 314
323 325 326 330 331 331 332 332 334 330 329 332 332 328 327 328 328 328 328 326 325 325 325 324 325 325 325 326 321 317 309 309 307
323 325 326 328 328 326 326 328 329 329 331 330 328 326 327 328 327 325 325 326 327 325 323 323 324 325 324 322 317 315 313 312 311
323 323 325 326 325 325 327 328 327 330 329 328 327 326 325 325 324 326 325 324 320 322 317 318 324 322 322 318 314 312 307 307 310
322 323 325 323 323 325 325 326 326 328 330 330 329 326 324 323 324 325 324 313 309 301 299 299 299 299 310 310 304 299 297 295 294
319 323 325 324 323 323 324 325 326 327 327 328 327 326 321 320 320 322 318 315 312 310 304 297 296 296 297 298 297 295 294 293 294

GFSFLT1_sfc_thetae_009.txt.gz
Theta_e
332 334 335 337 340 343 344 345 348 350 353 355 355 355 359 361 361 358 355 354 348 347 348 346 346 346 347 348 345 343 345 343 342
331 333 336 337 340 342 345 347 350 352 354 355 355 355 360 359 360 359 355 353 349 348 349 343 345 345 346 344 340 343 345 340 342
330 334 337 338 341 342 346 347 349 352 354 355 356 355 357 357 358 358 357 352 346 346 346 344 344 344 343 341 340 341 344 341 341
330 333 337 340 342 344 346 347 349 350 351 354 354 355 358 358 356 354 355 350 343 342 344 343 343 343 341 341 340 341 342 342 341
329 335 338 339 341 343 344 346 346 348 349 350 355 357 357 355 354 353 346 348 342 345 335 342 342 342 341 341 340 341 341 340 337
329 332 335 338 340 343 344 345 348 348 350 350 352 356 354 353 349 347 350 340 340 340 340 341 339 340 340 340 340 342 342 340 338
329 330 335 337 339 344 347 349 350 351 350 351 352 352 353 351 349 350 342 340 343 340 337 339 340 339 341 340 341 340 339 337 338
327 328 332 336 338 344 348 349 350 351 350 354 354 355 353 351 349 348 349 343 336 333 334 335 336 337 338 339 338 335 337 338 338
327 328 330 334 338 340 342 345 346 347 350 352 355 354 352 352 351 347 346 341 338 333 332 332 334 333 334 337 334 327 327 334 337
330 330 331 333 337 340 341 342 344 344 347 350 352 353 352 351 350 346 344 341 340 337 334 332 333 332 332 338 339 325 324 328 336
331 333 334 334 333 337 341 341 342 345 347 350 352 352 352 351 349 346 343 342 341 338 334 338 332 334 337 340 339 322 320 325 335
328 330 332 334 335 336 339 339 342 344 346 348 349 350 351 351 348 345 343 342 338 341 337 335 337 336 337 337 337 321 319 326 331
328 331 334 336 337 338 339 341 342 343 344 346 347 349 351 352 349 346 343 341 337 339 338 335 336 336 339 333 340 318 316 323 329
333 334 336 340 342 342 343 344 346 346 346 346 350 352 352 349 347 346 345 339 339 338 337 332 332 336 338 335 333 332 314 315 334
332 332 333 337 339 341 345 346 347 346 345 346 350 350 348 344 345 340 337 335 336 339 337 331 327 332 328 330 334 318 315 313 314
333 335 336 339 340 340 342 345 347 344 344 345 346 346 342 341 342 339 336 335 333 331 331 331 328 327 327 329 330 330 310 309 310
333 335 336 338 339 338 338 341 342 342 340 344 343 341 340 341 340 337 337 335 335 335 332 329 325 329 328 331 331 330 327 323 319
333 334 335 337 338 338 337 340 340 341 342 341 339 339 338 336 335 336 334 327 326 330 331 322 329 327 333 331 329 327 317 316 321
327 330 335 336 337 337 336 338 338 339 341 340 338 335 333 332 330 330 330 324 317 299 300 299 299 299 318 319 306 299 299 299 297
320 325 328 333 335 336 337 338 338 339 340 340 337 335 333 331 328 331 329 326 325 323 306 296 295 296 299 303 299 295 294 294 294

GFSFLT1_sfc_thetae_012.txt.gz
Theta_e
336 337 336 337 341 343 346 348 351 354 357 363 363 363 364 368 367 361 360 361 350 347 344 345 352 354 349 349 350 350 346 342 342
333 336 335 337 340 343 346 348 353 358 362 361 361 361 364 366 366 365 361 363 360 352 353 346 351 351 348 347 349 346 346 341 343
332 336 338 336 340 342 346 349 351 354 357 360 360 360 361 361 363 365 365 363 360 358 353 352 350 349 345 347 346 345 346 342 343
331 335 338 339 339 342 346 348 350 352 354 357 358 359 363 362 361 362 364 363 361 359 355 353 350 350 346 346 343 344 345 344 340
329 335 339 341 342 343 345 347 348 350 352 353 356 362 364 361 362 362 361 364 361 360 355 351 351 349 347 344 343 343 343 340 338
331 335 339 342 343 344 345 346 350 350 352 352 353 359 357 358 360 360 362 362 361 352 352 347 346 346 343 343 343 342 343 343 341
330 336 339 341 343 345 347 351 356 356 352 353 353 354 356 360 360 360 359 361 356 349 343 344 340 344 342 342 343 343 341 341 341
330 335 337 340 342 350 354 355 358 357 354 356 357 357 356 359 362 361 359 361 355 349 345 344 341 338 339 340 341 338 343 341 338
327 335 337 340 344 347 350 352 354 354 355 355 358 359 357 362 364 362 359 361 353 348 342 343 337 334 332 334 337 330 329 336 337
329 335 338 340 342 346 350 351 354 353 356 357 357 358 359 360 363 360 358 358 352 347 345 342 336 332 333 335 337 326 326 329 335
328 336 338 341 342 346 350 351 352 353 355 357 357 358 359 360 361 358 355 352 349 348 344 340 340 337 337 337 337 326 324 328 337
334 338 342 343 344 347 350 349 351 352 351 354 354 355 357 358 358 356 353 349 344 344 343 339 337 337 340 339 339 321 320 326 337
332 337 342 343 343 345 347 348 349 349 349 351 352 354 356 359 359 357 351 350 348 343 339 337 335 339 340 334 338 321 317 321 334
337 339 341 343 344 344 347 348 347 348 349 349 353 355 357 359 359 356 352 352 347 342 337 337 340 341 341 337 336 335 315 315 335
340 342 343 344 344 345 348 350 351 351 352 355 358 358 357 358 354 350 348 343 341 339 339 342 340 340 339 338 338 323 314 313 316
336 337 337 340 342 346 349 351 352 352 356 356 357 356 355 348 349 346 344 338 337 336 339 336 336 336 333 329 336 335 312 311 311
337 338 338 340 341 343 346 351 353 354 354 354 354 349 344 344 340 338 339 337 337 337 337 335 337 334 332 331 333 334 333 322 323
338 339 341 341 341 344 346 349 351 350 351 351 349 345 344 343 340 342 339 321 322 336 334 322 335 332 329 330 328 332 323 321 331
333 339 342 343 343 344 346 347 349 350 351 351 348 343 343 341 341 340 338 334 330 299 302 300 300 301 317 319 308 302 299 298 297
322 328 331 339 341 343 345 346 346 347 347 347 345 342 342 336 333 337 334 333 330 327 311 297 295 296 298 302 302 297 295 295 294

GFSFLT1_sfc_thetae_015.txt.gz
Theta_e
332 337 339 337 340 344 348 350 357 359 364 369 372 370 372 374 374 360 358 362 354 348 347 349 364 356 354 349 350 350 351 344 342
327 335 339 338 339 341 346 349 356 359 364 368 370 364 373 373 373 371 360 366 366 355 358 349 353 356 352 349 349 350 351 342 346
327 333 338 339 338 340 345 347 352 358 363 366 366 367 369 368 370 373 372 372 370 363 361 359 359 354 351 349 349 349 349 346 347
327 331 337 339 339 340 343 345 348 353 357 362 364 366 367 367 366 368 371 370 369 368 360 362 357 357 351 348 349 346 347 347 344
328 331 336 339 340 341 342 344 344 347 351 351 359 363 367 367 368 368 366 369 370 370 365 361 359 356 352 350 347 348 345 343 342
328 330 333 338 340 340 342 343 347 345 350 348 351 360 361 365 365 367 366 369 369 369 366 363 354 354 348 349 344 342 342 346 345
327 329 337 337 340 344 346 348 351 351 349 348 350 353 354 360 364 365 366 370 369 369 368 361 352 354 351 347 342 342 340 342 342
326 327 334 339 341 350 354 353 355 356 354 355 353 356 355 359 365 367 368 368 370 369 365 359 355 353 350 347 342 339 336 342 341
325 326 328 339 342 346 355 355 358 359 359 359 359 362 360 363 368 368 367 369 369 368 364 359 355 351 347 341 338 329 332 341 341
325 326 329 334 341 345 351 353 361 359 363 362 363 365 369 368 371 370 370 370 369 365 363 356 351 349 345 342 339 327 328 331 339
327 330 332 334 340 346 353 353 353 359 359 366 366 368 367 371 371 372 371 368 366 362 356 349 350 348 344 339 341 327 325 329 337
329 329 332 334 343 346 357 356 361 361 359 363 364 365 367 369 370 369 368 364 361 355 351 347 343 343 341 340 344 324 322 327 333
328 334 334 337 345 348 354 358 355 358 355 357 359 362 363 367 368 367 364 361 357 356 353 346 342 340 338 333 343 322 320 325 337
331 335 337 347 348 353 357 357 354 358 357 355 357 358 359 362 365 365 365 362 356 353 350 345 342 338 341 344 343 340 315 316 335
337 338 342 346 348 350 354 357 358 360 358 361 363 363 362 363 365 359 357 356 353 349 344 338 337 338 339 344 348 326 314 314 317
342 344 344 346 347 350 353 358 358 359 366 367 365 362 364 363 359 355 354 351 346 342 340 336 335 336 341 343 340 344 313 312 314
340 343 345 346 347 348 354 360 359 360 360 361 360 360 354 352 349 346 347 346 343 339 337 337 337 338 339 338 337 332 336 332 324
338 339 340 343 345 346 349 353 354 355 357 358 354 348 345 344 343 344 338 330 332 339 328 328 339 337 339 335 334 334 320 322 329
339 339 341 341 344 346 349 351 352 354 357 354 349 346 344 343 342 338 335 330 327 301 303 299 299 302 322 322 308 301 300 299 302
324 336 340 341 342 345 348 349 349 351 354 352 351 348 348 343 340 339 339 338 336 332 312 299 297 298 302 306 303 297 296 296 296

GFSFLT1_sfc_thetae_018.txt.gz
Theta_e
333 336 338 339 341 342 346 348 353 356 362 363 366 364 367 367 367 366 361 365 360 357 354 354 355 357 356 355 354 354 354 351 347
328 335 338 339 342 344 347 348 350 355 361 364 366 366 366 368 366 365 363 364 364 359 359 362 355 355 356 352 354 353 354 347 346
327 330 338 340 340 344 347 350 351 356 360 363 366 366 366 366 366 365 364 364 364 358 361 359 357 356 354 351 350 353 350 345 347
327 329 336 338 341 341 347 349 351 353 356 362 365 365 365 366 366 367 365 366 363 361 363 358 358 356 352 349 348 350 346 343 343
329 331 334 338 341 341 342 345 348 352 355 358 362 364 364 365 366 366 366 363 366 365 361 363 358 355 351 348 346 347 344 340 340
331 335 338 338 340 340 341 343 346 349 353 355 360 362 361 363 362 364 363 366 363 367 363 359 353 355 350 347 346 344 342 342 341
331 338 343 339 339 342 342 344 346 347 350 352 355 359 359 359 361 361 361 364 366 365 364 360 357 353 351 347 346 344 342 341 342
330 335 336 342 343 347 345 346 347 347 348 349 351 354 356 358 361 362 363 362 365 365 365 362 359 353 352 348 345 343 342 342 342
329 332 335 341 344 352 353 348 348 347 347 349 350 350 353 357 359 362 361 364 362 365 364 363 359 354 351 348 345 332 333 340 341
329 330 332 340 344 346 350 355 352 348 348 352 350 353 354 355 358 360 361 362 363 363 363 363 359 353 350 349 346 327 328 333 342
328 331 332 338 334 346 351 349 353 355 353 353 355 354 357 358 359 360 362 362 362 363 363 362 359 353 348 346 345 327 326 330 339
327 330 339 338 333 337 352 351 356 356 357 355 356 358 361 362 366 364 363 363 363 364 364 361 353 348 344 342 341 324 323 327 334
325 327 329 335 339 343 353 355 356 357 355 358 355 358 363 367 370 370 367 367 366 366 360 353 348 345 344 335 338 321 320 323 331
340 332 329 335 353 350 354 359 357 357 356 358 361 363 368 368 370 370 370 369 364 355 351 349 345 341 339 337 336 336 317 317 335
338 341 334 342 357 359 361 360 363 360 360 365 367 368 366 367 369 364 365 363 357 351 348 344 341 340 338 338 339 325 315 315 319
338 344 347 348 354 359 363 365 367 361 367 364 364 363 363 365 365 362 357 353 349 347 344 340 337 334 335 338 346 343 317 313 314
345 347 348 353 353 354 358 363 364 363 362 364 363 363 362 357 354 351 351 348 347 342 339 337 338 337 339 341 342 339 332 328 322
345 348 350 353 353 354 359 362 361 362 363 364 358 355 351 347 344 344 332 321 325 340 329 334 339 338 337 337 337 335 330 329 332
341 343 346 344 344 347 352 355 356 360 361 356 351 346 344 343 339 338 336 330 323 302 303 300 301 305 330 323 312 302 301 301 303
326 339 344 346 348 349 353 353 354 356 356 353 347 344 345 341 336 338 336 336 332 324 311 300 298 300 305 310 304 298 298 297 298

GFSFLT1_sfc_thetae_021.txt.gz
Theta_e
329 330 331 330 334 336 339 342 347 353 354 353 357 357 357 355 356 352 351 352 347 344 344 345 347 349 344 341 339 344 342 337 337
326 326 332 332 333 336 339 341 347 348 355 355 356 358 358 356 355 357 356 351 353 346 342 347 347 350 344 341 340 339 341 337 336
324 325 331 333 333 335 339 342 346 350 356 355 357 355 359 360 358 356 356 353 351 349 344 349 346 349 345 343 341 340 340 335 338
321 327 329 333 335 336 340 342 345 349 354 355 357 358 356 359 360 358 357 355 352 350 349 347 347 348 346 341 341 342 340 335 334
321 322 332 334 335 336 340 341 342 348 355 356 358 360 358 356 358 359 356 354 355 354 349 349 349 348 346 342 338 341 340 335 336
323 323 329 333 334 337 339 341 342 346 352 356 358 359 359 358 357 358 358 355 356 357 352 351 349 349 345 342 340 340 342 337 334
323 325 326 330 333 335 338 341 343 344 348 355 357 359 358 357 357 358 358 359 356 356 357 352 347 347 345 343 340 341 339 336 334
321 323 329 328 332 333 336 338 341 344 346 349 355 356 356 355 357 358 359 358 359 356 356 354 350 347 345 343 339 340 336 336 335
317 320 329 331 332 333 334 336 338 341 345 347 349 353 354 355 355 356 355 356 356 359 355 356 351 346 345 342 342 335 334 337 336
317 320 329 330 331 337 335 337 339 340 343 347 347 348 352 353 353 353 354 355 355 356 357 357 354 350 345 344 342 330 330 335 334
314 323 326 333 335 335 342 340 340 341 342 344 345 345 348 351 352 352 354 354 355 355 357 356 356 353 347 345 342 329 328 333 333
316 315 319 322 333 337 339 344 343 341 341 342 342 342 344 348 350 351 352 353 353 355 355 356 356 353 348 345 338 323 324 328 330
323 321 320 321 325 331 341 339 346 342 340 341 341 342 346 348 350 350 352 354 354 356 356 355 352 346 346 337 337 322 320 324 330
325 326 320 321 323 329 340 341 347 345 342 341 345 348 349 351 354 353 356 355 357 356 352 346 343 342 340 338 336 328 318 317 330
324 327 329 324 322 335 342 345 348 347 347 348 348 357 355 361 361 362 362 358 354 350 347 344 340 337 335 335 336 325 316 316 319
336 336 339 347 348 349 349 349 351 348 354 357 358 357 358 358 357 359 355 351 346 344 343 340 338 336 334 334 336 332 317 314 315
341 344 343 346 348 350 351 355 356 356 356 357 356 355 354 351 350 348 348 346 344 341 338 336 335 333 332 332 333 330 322 319 318
337 340 344 348 351 350 350 353 354 354 355 357 351 349 346 344 342 334 323 313 323 336 325 331 336 334 333 332 330 329 322 321 322
329 337 339 339 344 346 349 352 350 350 351 349 344 340 340 336 335 330 326 322 316 302 302 301 304 311 325 316 313 310 306 306 308
321 326 336 340 338 340 342 345 346 346 346 344 342 338 336 335 333 332 329 327 323 316 308 301 299 300 306 309 303 302 300 299 301

GFSFLT1_sfc_thetae_027.txt.gz
Theta_e
323 326 328 330 331 332 334 337 341 343 343 345 348 348 347 348 348 346 345 342 343 345 347 346 348 348 346 339 335 336 333 332 330
321 324 327 329 331 332 334 335 339 342 342 344 348 349 348 347 348 347 345 343 344 346 346 347 345 348 345 340 335 336 333 331 331
321 324 326 328 330 331 334 335 338 342 343 343 346 349 349 348 347 348 347 345 345 345 345 344 344 346 344 340 336 336 335 331 330
322 323 325 327 329 331 333 335 337 340 343 343 343 347 348 348 348 348 348 346 346 346 343 342 343 345 342 339 336 336 335 333 331
321 325 326 327 328 329 332 334 336 339 343 343 344 347 347 347 347 349 349 348 348 348 344 341 342 343 342 339 337 334 337 335 334
318 323 326 326 326 326 330 333 335 340 343 344 345 347 347 347 347 347 347 349 351 349 347 342 342 343 342 340 337 335 335 336 335
316 319 322 323 324 326 329 332 335 340 343 346 346 347 348 347 349 349 349 348 349 350 349 344 342 342 343 342 340 337 336 334 334
311 314 319 322 326 327 328 331 335 339 343 346 347 347 348 348 350 351 350 349 348 349 349 347 345 342 342 342 340 339 338 336 334
309 315 319 321 326 328 328 331 334 337 342 347 348 347 347 349 350 351 351 351 349 348 348 348 345 343 342 341 341 334 333 338 337
309 311 317 321 326 328 330 332 335 336 341 345 348 348 349 349 349 349 351 352 351 349 347 349 345 344 344 341 341 330 330 334 337
311 313 314 320 322 324 331 334 336 337 341 344 347 348 349 350 350 349 350 351 351 351 349 348 349 345 344 343 341 328 326 332 335
313 315 316 322 326 327 328 332 336 337 339 343 347 347 348 350 352 350 350 349 350 351 351 349 348 347 343 342 342 325 323 328 336
313 313 312 317 325 326 328 333 336 336 337 340 345 347 349 351 352 351 351 351 351 352 353 352 351 349 346 340 345 322 320 328 337
317 316 318 316 323 329 328 329 335 336 337 338 342 348 350 350 352 352 352 352 352 352 352 352 352 351 351 346 344 332 317 322 336
328 327 332 329 312 318 325 329 332 334 335 339 341 343 345 347 350 352 351 350 351 351 351 350 351 351 349 347 338 319 315 318 324
336 337 338 340 338 333 328 320 331 329 334 337 339 341 342 343 347 350 350 349 349 348 350 350 349 347 343 336 333 325 315 316 321
335 337 338 341 342 342 341 345 339 331 334 333 334 336 339 341 342 346 349 349 349 349 350 349 346 341 337 337 333 331 325 325 321
328 331 331 332 333 333 331 331 330 330 333 339 331 334 336 339 340 341 339 321 339 350 345 345 344 341 338 334 332 330 322 320 322
324 328 330 331 331 331 327 319 318 320 320 321 327 340 339 342 337 328 325 328 320 306 316 315 316 315 325 329 317 310 305 304 303
320 325 328 323 323 330 333 326 320 320 321 327 321 330 333 329 328 330 331 333 330 324 314 310 308 308 310 310 314 306 300 299 300

GFSFLT1_sfc_thetae_030.txt.gz
Theta_e
325 328 331 332 333 334 334 338 339 341 342 342 344 344 345 346 347 346 346 345 346 346 347 348 352 351 350 347 344 342 339 336 334
321 322 328 330 333 334 335 335 339 342 342 343 344 345 345 346 347 347 346 346 346 346 348 349 350 351 350 348 344 341 338 336 335
320 322 323 328 331 333 334 336 338 341 343 342 344 346 347 347 347 349 348 347 345 346 347 350 349 350 350 348 343 341 338 336 336
319 320 322 325 329 332 333 335 336 339 342 342 343 347 347 347 348 348 349 346 347 347 348 348 347 349 349 347 343 340 339 337 336
319 321 323 324 328 330 332 333 335 337 340 341 343 347 348 348 348 348 348 347 347 348 346 347 347 348 348 346 344 341 339 337 337
313 319 322 324 324 327 330 331 334 335 339 341 343 344 347 347 347 347 347 347 348 348 347 346 346 347 346 344 343 340 341 340 338
314 317 319 321 323 325 329 331 333 335 338 341 342 343 345 345 347 347 348 349 349 348 349 345 345 345 346 345 344 342 340 340 339
310 314 317 320 322 324 326 330 333 335 338 341 343 343 343 344 346 348 348 349 350 350 350 348 345 345 345 345 344 342 341 339 338
306 308 312 317 324 326 325 329 332 335 338 341 343 343 343 346 347 347 347 348 348 349 350 350 347 345 344 344 344 335 333 339 338
305 307 311 316 320 325 327 328 332 334 338 343 343 343 344 346 347 347 348 349 348 347 347 349 347 346 345 344 345 329 330 335 341
306 307 309 315 319 323 329 330 331 335 338 342 344 344 344 347 347 347 349 349 349 348 348 347 348 347 346 345 345 326 326 333 342
308 310 312 314 320 324 327 329 332 334 337 341 344 344 345 347 349 348 349 349 349 350 349 348 348 348 346 345 346 324 324 329 340
310 313 314 316 320 325 325 329 332 334 335 339 342 346 347 349 349 348 348 349 350 352 351 350 350 349 349 341 346 324 320 328 340
316 316 320 321 323 326 327 331 334 334 335 337 342 347 349 349 350 350 349 350 350 350 351 351 350 349 349 347 345 341 318 320 341
326 332 338 333 327 326 319 330 334 334 334 340 344 347 348 349 351 351 351 351 351 351 351 351 350 349 348 347 348 329 317 317 328
336 338 339 340 341 342 343 333 333 332 332 340 341 342 345 348 350 352 353 351 350 349 351 350 349 348 347 347 348 333 315 315 319
332 333 337 340 339 336 335 336 335 336 340 344 338 338 340 344 347 348 352 352 351 350 349 348 348 348 346 346 336 331 323 325 327
329 330 329 330 328 324 322 323 322 323 325 336 338 335 336 339 342 343 348 339 342 350 352 346 349 349 348 341 331 327 321 321 329
326 324 324 328 331 332 328 324 322 321 326 326 332 339 340 337 339 335 329 330 324 307 313 310 312 315 327 330 317 309 308 310 304
324 329 329 329 329 330 332 332 330 331 328 331 331 332 333 332 330 332 332 333 330 324 313 307 307 307 312 315 317 308 306 301 301

GFSFLT1_sfc_thetae_033.txt.gz
Theta_e
334 336 337 339 342 345 346 347 350 350 352 353 355 356 356 359 360 356 356 357 353 353 353 356 363 363 363 363 362 360 358 354 351
329 334 337 339 342 344 345 346 349 350 351 353 355 355 356 357 358 359 357 360 361 355 361 356 360 362 362 362 361 359 357 352 351
326 330 334 337 340 343 345 345 348 350 351 352 354 355 355 355 356 359 359 361 359 360 360 360 359 360 361 361 361 359 356 352 352
324 327 330 332 338 342 345 345 346 349 350 352 353 354 355 356 356 357 359 358 360 360 362 361 361 360 360 360 360 358 356 354 351
324 328 332 332 333 338 340 344 345 346 349 350 352 354 355 356 357 357 357 358 359 361 361 361 363 361 360 360 359 358 356 353 350
322 325 328 332 332 334 340 342 344 344 347 348 350 354 354 355 355 357 357 358 359 361 361 361 358 360 360 358 359 358 356 355 352
321 324 329 332 333 337 340 342 344 345 345 348 349 351 353 354 356 356 357 359 359 360 361 361 361 361 360 359 358 358 356 355 353
321 322 325 331 333 339 342 343 345 345 346 349 350 351 352 354 357 358 358 359 359 360 360 360 361 360 360 359 357 354 356 355 353
321 319 323 328 334 337 338 342 343 344 346 347 351 351 350 354 357 358 358 358 359 359 359 360 360 359 359 358 355 340 337 350 354
321 321 323 325 327 333 339 339 343 343 345 348 350 351 352 353 356 356 357 358 359 358 358 359 359 358 358 357 358 332 332 337 353
321 323 324 327 324 330 339 338 337 344 346 348 349 351 352 354 354 355 356 357 357 358 359 359 358 358 358 358 357 329 328 334 352
322 324 326 326 326 328 339 340 343 345 346 349 350 351 352 353 352 351 356 355 356 357 357 357 358 359 359 357 358 326 325 332 349
320 321 324 327 327 330 332 339 340 344 343 347 349 352 353 355 356 355 356 356 357 358 358 357 357 358 360 349 358 325 321 331 349
324 326 327 327 329 336 339 341 342 344 346 347 351 352 353 357 358 357 358 359 360 360 357 357 356 357 359 359 355 352 319 320 351
330 335 334 328 333 334 338 342 345 348 350 351 353 354 356 359 360 356 356 359 357 358 358 358 356 356 355 355 358 333 319 317 324
341 345 345 348 348 344 343 345 348 347 348 351 353 354 356 357 359 359 361 358 356 354 358 355 354 353 352 352 353 353 321 317 318
346 343 345 348 347 344 342 346 349 350 352 352 352 353 356 357 356 356 360 357 351 353 354 354 354 354 351 351 352 347 329 326 322
339 337 336 335 334 332 333 336 337 341 348 354 350 350 350 351 353 353 357 359 358 355 359 354 355 355 355 354 340 328 320 322 330
336 337 339 338 338 337 336 335 335 337 340 345 352 351 347 345 346 349 352 353 342 310 309 313 315 318 342 347 318 308 306 304 307
326 335 336 336 332 334 336 339 339 337 342 343 342 342 343 341 338 345 344 343 342 340 327 304 305 307 308 312 312 306 306 305 307

GFSFLT1_sfc_thetae_036.txt.gz
Theta_e
333 338 342 342 346 348 350 350 355 356 360 363 365 363 368 370 371 360 359 364 359 358 355 357 362 363 365 367 367 368 368 363 359
327 336 340 343 345 347 350 352 356 358 362 364 363 361 367 369 369 367 362 367 368 360 367 359 362 363 366 367 367 368 368 361 360
326 332 338 341 344 346 349 352 355 358 362 363 364 363 363 363 365 369 369 370 369 368 367 368 364 363 365 366 366 367 367 362 362
327 331 335 339 341 345 347 350 353 354 357 361 362 363 365 365 363 364 366 367 369 370 368 370 367 367 364 363 364 366 366 365 361
327 330 333 336 339 342 345 347 349 350 353 355 357 362 366 365 365 365 364 367 368 372 370 370 369 368 366 364 363 365 365 362 359
326 328 331 334 336 337 341 345 349 349 350 352 354 360 358 359 360 362 365 368 368 370 370 371 365 367 370 365 364 365 365 363 362
322 327 329 331 334 336 338 344 350 354 349 351 353 354 356 360 363 364 365 368 369 369 371 370 370 370 370 368 365 364 363 363 362
321 323 326 329 334 338 343 345 350 354 351 353 353 358 355 360 364 367 367 367 369 370 370 370 371 370 370 371 365 359 366 366 362
321 322 323 325 330 339 343 346 348 349 354 353 355 359 359 362 366 367 367 368 369 370 370 370 370 369 369 368 362 343 340 357 363
321 323 325 327 329 334 339 343 348 348 354 354 357 359 362 364 367 366 368 369 369 369 368 369 369 369 369 369 369 334 334 340 362
321 322 324 327 328 330 335 338 337 344 349 358 359 360 361 363 365 366 368 368 367 368 369 368 368 368 369 368 368 333 330 336 361
324 325 327 328 329 330 336 336 338 340 345 351 354 359 360 363 364 361 363 366 367 366 364 366 366 365 369 368 368 330 326 335 358
325 326 328 328 329 330 332 337 339 342 343 348 354 358 359 363 365 364 363 366 367 368 365 363 362 363 368 357 368 330 323 334 355
333 332 330 332 334 333 336 340 342 343 345 347 353 355 356 361 365 366 367 369 368 367 365 363 365 366 367 369 364 363 320 322 357
336 335 330 334 337 335 340 348 348 348 355 355 357 359 357 362 366 359 359 368 368 367 365 364 364 362 358 363 366 340 322 320 330
338 335 336 342 338 341 345 352 351 351 359 359 359 359 361 362 362 362 365 365 364 360 363 357 358 356 355 356 359 365 325 317 320
337 342 347 348 349 346 350 354 355 356 359 359 358 358 360 361 361 360 362 360 360 358 356 356 354 354 350 356 359 362 362 338 327
343 349 351 352 351 349 350 354 356 358 358 358 357 358 358 359 358 359 360 362 359 358 362 353 356 357 356 354 356 358 343 330 332
346 345 344 343 343 343 342 343 345 348 354 359 356 353 352 351 352 355 356 357 358 317 315 308 304 305 324 354 321 310 309 308 307
336 345 345 341 340 343 347 345 346 347 350 350 349 348 352 352 341 347 349 352 353 352 334 306 304 301 303 312 312 305 303 302 305

GFSFLT1_sfc_thetae_039.txt.gz
Theta_e
332 334 340 343 345 346 349 350 354 355 362 367 371 370 371 372 372 361 360 364 356 355 353 354 370 371 371 371 371 368 374 364 362
328 333 339 342 345 347 350 351 355 357 362 367 370 369 371 372 372 370 362 367 369 362 365 357 367 369 370 369 370 372 374 361 366
327 331 338 342 344 346 351 351 354 358 362 366 369 369 371 371 372 373 371 371 370 367 368 371 372 368 367 368 371 372 373 365 369
326 328 335 341 344 346 350 352 352 356 359 365 367 370 370 370 371 371 374 370 372 372 372 375 371 372 369 370 370 371 372 369 368
327 330 334 340 342 345 347 349 352 354 357 357 364 366 370 369 371 370 370 371 372 374 373 374 374 375 372 371 370 371 370 367 361
328 331 332 336 339 342 343 346 352 352 356 355 357 363 364 368 368 369 369 371 372 374 374 374 372 372 373 371 370 370 371 370 367
327 328 328 333 336 339 341 346 353 356 353 355 357 359 360 364 368 368 368 370 373 373 375 374 373 373 373 373 371 370 369 369 369
325 327 328 330 332 337 345 349 356 359 353 357 356 360 361 363 368 371 371 371 372 373 374 374 374 372 372 374 372 366 369 368 368
321 323 324 328 332 335 339 343 348 354 359 357 358 362 361 365 369 371 371 372 372 374 373 374 374 373 372 372 369 347 341 359 367
322 323 325 327 328 330 336 341 347 348 357 360 359 361 365 365 368 369 371 373 373 372 372 373 373 372 372 371 372 338 335 341 366
323 324 326 328 327 330 337 336 336 347 350 363 363 364 362 367 367 369 371 372 372 373 373 372 372 372 373 372 371 339 330 336 361
324 325 327 329 330 330 339 334 337 340 344 356 362 362 364 364 368 368 370 370 370 372 371 371 371 372 372 372 372 335 328 333 358
334 335 335 335 332 331 332 336 334 336 336 343 358 361 365 368 370 370 370 371 372 373 372 370 369 369 372 360 371 340 326 332 358
334 337 339 339 339 335 340 342 338 346 346 345 353 361 365 369 370 371 371 372 374 373 371 367 370 369 370 371 367 368 324 322 357
334 336 339 340 339 340 342 344 344 353 355 358 365 364 365 367 370 366 365 372 373 374 371 369 369 368 367 368 371 343 327 320 329
332 338 343 342 337 343 345 348 351 357 365 371 369 367 369 370 371 370 371 370 372 366 369 362 362 360 361 363 364 369 328 318 320
331 339 343 344 346 346 350 353 356 358 363 365 368 368 370 370 370 368 369 364 363 361 359 359 357 357 358 357 361 362 364 351 337
333 340 347 351 352 352 352 357 359 359 361 363 359 361 360 362 361 363 365 365 361 360 365 350 358 357 357 356 357 356 340 347 361
336 344 351 350 351 351 350 352 354 359 363 362 361 358 358 357 357 360 360 360 361 316 321 306 304 304 329 352 322 311 308 307 310
338 347 347 347 347 348 350 349 349 351 354 357 360 359 360 352 346 352 355 355 355 353 328 303 302 303 302 301 301 305 303 304 306

GFSFLT1_sfc_thetae_042.txt.gz
Theta_e
332 335 339 342 346 346 346 347 350 353 358 359 363 362 363 362 363 361 355 361 355 353 355 357 365 363 366 365 367 366 370 368 365
329 333 336 341 347 347 347 346 349 351 355 360 362 362 364 364 360 364 359 357 363 362 360 362 368 365 365 365 367 365 368 363 364
328 332 336 342 345 347 348 348 349 352 356 358 362 364 363 364 364 364 363 361 362 360 366 363 374 366 365 366 366 367 367 365 365
327 332 335 339 345 348 350 349 349 351 353 359 362 364 365 365 365 364 364 362 363 367 363 372 365 369 366 365 365 365 367 363 362
328 332 337 340 344 346 349 349 349 350 353 355 361 365 366 364 366 367 365 363 363 365 367 366 370 368 366 365 364 366 363 362 358
328 332 337 339 342 344 347 350 351 351 352 353 360 364 366 365 365 365 365 365 364 365 364 367 364 368 367 364 364 364 365 363 361
330 334 336 338 339 344 346 350 352 353 353 354 355 361 363 363 365 366 366 367 367 365 367 364 366 365 365 366 365 364 364 364 364
330 334 335 339 339 345 347 350 353 354 355 356 356 356 360 361 364 367 367 366 367 369 367 367 366 366 367 366 366 365 364 363 363
327 330 332 335 337 347 350 356 354 354 355 357 358 358 358 361 363 364 366 366 366 367 368 367 368 366 364 365 365 349 343 357 362
324 323 328 333 337 343 349 349 359 357 356 357 359 359 361 362 363 364 365 366 366 365 366 367 367 367 367 364 366 341 338 342 362
327 327 329 337 329 336 343 337 337 350 359 360 358 363 360 364 365 364 366 366 365 366 366 366 366 366 367 366 365 340 333 338 359
325 329 333 332 334 335 351 346 351 349 351 359 360 358 363 361 366 364 365 365 365 366 366 366 367 367 367 366 366 335 331 333 355
333 335 339 342 342 342 343 350 345 352 349 354 356 357 359 365 362 365 364 365 366 368 367 366 367 366 367 357 366 340 328 332 358
334 337 340 343 345 345 347 349 350 353 354 346 355 360 361 362 366 363 366 367 368 368 367 367 366 366 367 367 363 364 326 322 359
331 334 336 343 344 347 349 350 351 357 356 368 370 363 364 365 368 364 364 368 369 369 368 365 365 365 364 367 368 341 333 320 324
328 333 336 342 347 347 350 351 361 360 362 373 373 374 372 366 369 368 366 367 367 366 368 365 364 362 362 362 364 367 328 321 319
327 332 336 339 346 353 358 370 360 368 369 370 373 370 375 370 368 366 367 366 366 364 363 364 363 362 360 360 363 364 364 349 333
328 334 337 342 348 358 361 364 366 367 370 370 368 370 369 369 365 365 366 364 362 363 366 355 362 361 359 359 358 355 331 340 357
330 335 338 344 354 355 357 356 360 363 366 370 370 365 362 361 360 363 362 363 360 308 312 307 304 307 328 345 314 305 308 314 317
325 333 338 344 352 353 354 354 353 356 361 364 368 366 365 359 354 359 361 361 360 355 316 301 303 301 302 301 301 299 301 298 300

GFSFLT1_sfc_thetae_045.txt.gz
Theta_e
333 333 336 336 337 338 338 340 344 348 348 349 351 354 351 349 353 350 348 348 347 344 349 352 354 357 359 356 357 356 357 355 356
330 331 336 337 338 338 338 341 344 346 349 349 351 352 354 351 350 356 349 345 349 343 347 351 356 357 359 357 357 356 355 357 354
327 332 336 338 338 339 339 341 345 347 350 350 352 353 355 355 352 350 355 348 346 352 348 348 355 356 356 357 358 357 355 356 356
324 330 335 339 340 340 340 341 344 346 348 352 353 355 354 356 356 354 353 354 348 352 352 355 353 357 356 357 357 358 355 355 354
322 329 335 340 340 341 341 340 342 344 347 352 354 356 356 355 357 357 353 353 354 349 355 354 357 359 358 358 357 357 357 355 356
319 327 332 338 340 340 341 341 341 343 345 350 353 356 356 356 356 357 356 355 353 356 351 357 354 358 358 358 358 357 357 358 355
318 326 331 336 339 340 342 342 341 342 344 347 353 355 356 356 357 357 358 358 357 352 357 355 359 355 358 358 358 358 358 357 357
322 322 330 334 337 339 342 342 342 343 344 346 349 354 356 357 359 359 359 359 360 359 355 358 356 358 357 360 357 358 357 358 357
319 322 327 327 332 337 341 343 343 344 344 346 348 350 354 357 359 359 359 359 359 360 360 357 359 356 357 357 360 346 343 354 357
316 316 318 323 326 330 340 344 346 346 347 348 347 348 350 355 357 358 359 360 360 359 360 361 358 359 357 357 359 339 337 342 357
317 321 322 321 327 325 326 336 347 348 349 349 349 348 349 351 355 356 358 358 358 359 360 360 361 359 360 359 359 338 333 338 356
327 328 330 332 333 333 334 333 331 343 349 349 350 350 351 352 355 355 356 356 358 359 359 359 359 361 361 360 361 333 331 334 353
327 330 332 334 334 335 334 334 336 339 344 348 347 349 353 356 356 357 356 357 358 359 360 359 360 360 361 353 361 335 327 332 355
328 329 329 332 336 338 336 337 335 336 334 337 348 351 352 356 357 357 359 358 360 359 359 360 359 359 361 362 358 358 325 323 355
322 326 329 331 331 334 339 339 335 330 337 338 348 349 350 351 356 355 358 358 359 360 360 359 358 358 359 361 362 337 328 321 325
320 323 328 330 330 335 338 344 338 334 339 349 348 349 352 352 354 358 352 358 357 359 359 359 358 358 358 358 361 362 327 321 320
318 323 325 329 332 336 344 353 351 351 353 352 350 352 350 356 356 356 355 358 360 360 360 359 358 357 357 357 357 359 360 348 331
314 315 325 326 331 333 344 347 353 353 355 354 354 354 358 357 356 356 356 346 333 355 359 352 358 359 357 356 355 346 321 325 345
311 312 312 324 328 333 344 344 345 347 350 351 352 355 356 355 354 355 356 343 326 306 306 305 306 306 333 323 309 302 302 302 305
312 312 311 323 325 333 338 344 342 345 346 350 348 345 353 352 347 352 354 356 350 327 314 302 300 301 302 304 302 301 301 300 300

GFSFLT1_sfc_thetae_048.txt.gz
Theta_e
333 329 332 334 335 335 336 340 342 342 342 344 348 348 347 347 346 347 345 342 339 339 345 349 351 355 355 353 354 353 352 350 348
331 330 331 334 335 336 337 339 342 344 343 343 347 348 348 349 348 347 347 343 342 338 343 351 351 354 356 353 354 353 352 351 351
331 331 334 333 335 337 337 339 342 345 345 343 345 349 349 347 348 352 349 345 343 348 341 348 351 351 355 355 354 353 351 351 351
330 331 334 333 336 337 338 339 342 344 345 345 345 347 350 349 347 346 353 348 344 345 347 343 346 352 353 355 354 353 351 350 352
330 332 333 334 336 337 337 338 341 342 346 346 347 349 349 351 351 349 346 352 349 346 346 348 347 351 352 354 354 354 352 351 353
328 331 332 334 336 336 337 337 340 342 344 347 348 349 349 350 351 352 350 347 351 351 347 347 349 354 353 354 354 354 355 353 351
319 329 331 334 336 336 337 337 338 342 344 349 349 350 350 349 351 353 354 352 349 351 352 346 350 352 356 355 356 355 355 355 354
321 329 332 335 336 337 337 337 338 341 343 346 351 351 351 351 352 354 356 355 353 352 351 353 349 350 352 356 356 356 355 355 354
320 327 333 336 337 337 338 338 338 340 341 344 349 350 351 353 354 354 354 355 355 354 353 350 352 352 352 352 357 344 341 352 354
317 321 331 336 337 338 339 339 340 339 341 343 346 349 350 353 353 354 355 355 355 355 355 354 350 352 353 352 354 337 336 341 355
325 326 326 326 326 330 338 341 341 341 341 342 343 344 350 352 354 354 356 355 355 356 356 356 356 353 353 354 354 334 332 337 353
325 327 329 329 330 329 330 334 341 342 342 342 342 343 344 351 353 355 355 355 356 357 357 357 357 358 356 354 356 331 329 333 349
324 327 329 330 334 336 332 331 334 340 343 343 343 343 345 347 350 353 354 355 355 357 358 357 358 358 360 351 357 333 326 332 352
324 325 328 329 331 333 334 336 328 331 338 342 346 347 347 349 349 350 353 354 356 356 357 356 356 356 357 358 356 355 324 323 354
319 322 326 330 332 335 338 340 332 328 329 333 341 347 348 350 352 351 353 353 354 355 355 354 354 354 355 357 358 335 324 321 326
311 318 320 327 329 335 341 350 338 342 345 346 348 340 344 346 350 352 353 353 352 353 355 354 354 354 354 355 358 358 325 321 321
309 310 311 321 326 328 334 345 348 348 348 350 349 344 343 346 346 346 348 354 355 355 355 355 354 354 354 355 355 357 358 343 332
307 308 310 316 322 326 329 340 342 344 345 347 346 348 350 349 349 345 348 329 330 349 349 347 356 356 357 356 355 355 338 341 347
307 308 310 312 319 326 329 333 340 341 343 345 343 342 345 350 352 348 341 327 320 305 303 302 306 317 337 321 311 305 305 304 304
309 307 310 315 320 325 327 332 338 339 340 340 340 340 340 339 343 350 348 335 330 323 314 305 300 300 302 306 306 301 302 302 303

GFSFLT1_sfc_thetae_051.txt.gz
Theta_e
330 329 329 334 334 337 338 338 337 339 341 341 342 343 343 343 342 342 342 341 339 338 341 344 348 351 351 350 350 349 347 346 346
327 329 329 333 335 336 336 337 337 339 340 342 343 343 344 344 344 343 342 341 341 339 339 345 346 349 351 350 351 350 349 348 347
326 328 330 333 335 335 335 337 339 339 341 341 344 344 345 345 345 345 344 341 339 339 338 343 347 348 350 351 351 351 349 348 348
327 329 331 331 333 336 336 337 340 339 340 340 342 345 345 345 346 345 346 344 343 343 341 341 345 347 349 352 351 351 349 348 349
328 330 333 333 332 335 336 335 339 340 340 340 341 345 345 345 346 347 348 346 343 343 344 343 342 347 348 351 352 352 350 348 349
325 330 332 333 333 334 335 336 337 340 342 342 342 343 345 345 345 344 345 350 350 345 342 342 345 344 348 349 351 351 351 350 349
320 328 331 333 333 333 335 336 337 339 342 344 343 344 344 345 346 347 345 345 347 350 348 344 345 347 348 349 351 352 352 351 350
311 317 328 331 332 333 334 335 336 339 341 344 344 343 344 344 347 349 349 348 346 347 350 350 347 347 349 351 352 352 352 352 351
309 318 328 331 332 334 334 335 336 338 341 343 345 344 344 346 347 349 350 350 350 347 346 349 349 346 347 349 353 342 340 349 352
313 322 328 330 332 334 335 336 337 337 340 343 345 345 346 347 348 347 349 352 352 350 348 348 347 349 348 346 350 335 336 341 353
323 324 325 330 333 335 337 338 338 338 341 342 344 346 347 349 350 350 350 350 351 352 352 350 349 347 348 349 349 334 331 337 351
323 326 329 328 330 333 335 338 338 338 338 340 342 344 347 348 350 350 351 351 351 352 353 353 352 352 349 348 350 329 328 333 349
321 327 329 330 334 330 333 334 339 337 337 338 338 342 346 349 351 351 350 353 353 353 354 353 355 355 355 346 351 331 325 330 349
316 320 326 333 340 336 334 328 339 338 338 338 339 341 342 345 351 351 353 354 354 354 354 355 354 354 356 357 353 352 323 322 349
309 310 321 326 336 341 340 329 333 331 335 334 342 343 342 342 344 349 352 352 353 353 354 353 353 353 353 355 356 335 324 321 325
307 309 312 322 326 335 341 346 346 345 343 345 341 341 343 345 347 347 347 350 350 351 352 351 351 351 351 352 354 354 325 320 321
305 307 311 317 323 324 330 339 342 342 345 346 347 347 344 343 343 345 347 349 350 349 350 350 350 350 350 351 351 354 354 337 332
305 306 312 315 320 322 323 332 338 339 341 342 341 343 344 345 346 341 343 332 331 346 349 343 352 352 353 351 350 353 341 343 351
305 305 312 318 320 320 321 323 333 337 338 339 337 336 338 337 340 345 341 328 319 305 302 300 302 310 335 334 316 314 312 309 311
307 307 311 315 317 318 318 319 323 334 337 337 335 333 335 336 332 342 338 331 328 324 313 302 298 298 305 311 312 301 300 300 302

GFSFLT1_sfc_thetae_054.txt.gz
Theta_e
332 333 334 334 335 335 337 338 338 339 339 338 339 340 342 343 343 341 342 341 341 340 341 345 351 352 353 353 353 352 352 350 350
329 332 333 335 336 337 337 338 338 338 339 339 340 340 341 342 343 342 342 342 342 342 343 346 349 352 353 353 353 353 353 350 350
326 331 332 334 336 337 338 339 340 339 340 340 341 341 342 342 343 343 344 343 342 341 342 346 348 349 352 354 354 354 353 352 352
325 329 331 331 332 336 338 340 340 338 339 340 341 342 343 343 344 344 344 343 343 343 342 343 347 349 350 351 352 353 353 353 353
325 329 330 331 333 334 335 337 339 338 339 340 342 343 343 344 345 345 344 344 344 345 343 343 345 348 349 351 353 353 352 352 353
321 326 329 330 332 333 335 334 336 338 339 340 342 343 343 344 344 344 344 345 346 346 346 345 344 346 347 349 352 353 353 353 352
311 325 328 329 331 332 335 335 336 338 339 340 341 342 343 343 344 345 346 347 347 345 346 346 347 346 348 349 351 353 354 354 353
310 311 326 329 331 331 333 335 336 339 340 341 341 341 343 343 345 346 346 347 350 350 347 346 346 347 347 349 350 352 353 354 353
320 313 314 328 333 334 333 335 335 338 340 342 342 341 341 344 346 346 346 346 345 347 350 350 349 347 347 348 349 339 338 349 353
320 323 319 314 329 333 334 335 337 337 340 343 343 342 343 344 345 346 347 348 348 346 345 349 349 349 349 348 350 334 334 339 353
317 323 326 322 326 333 335 337 337 339 341 342 343 343 343 345 346 346 348 349 349 349 348 346 347 349 350 348 348 332 331 335 351
313 318 328 329 331 334 336 336 338 339 340 341 343 343 344 346 347 347 347 348 350 351 351 350 349 349 349 350 350 328 328 332 349
312 316 327 336 332 334 334 336 337 337 339 340 342 344 346 348 349 349 349 349 350 352 353 353 353 352 353 343 350 330 324 330 349
314 317 323 337 337 332 333 337 337 336 338 339 342 346 349 350 351 350 352 352 353 352 353 354 354 354 356 356 349 349 323 321 348
314 317 320 327 340 341 339 336 338 336 336 340 342 343 346 349 350 352 352 352 353 355 353 353 353 353 354 357 358 334 326 320 323
315 319 320 323 325 336 340 345 344 342 345 342 344 342 342 344 349 351 353 352 353 352 354 353 352 352 353 354 357 359 325 320 320
308 315 319 321 320 320 324 337 341 343 347 350 347 344 345 347 345 345 349 352 353 353 353 352 352 352 352 353 355 356 356 344 334
307 313 317 318 318 318 319 324 336 339 341 341 343 345 347 349 348 345 349 347 342 351 353 344 352 352 353 353 352 353 341 342 351
306 310 315 316 316 316 317 319 323 332 339 339 338 338 340 339 343 349 344 334 325 305 305 303 302 305 327 351 321 318 312 309 310
308 309 313 315 315 315 315 317 318 326 333 338 338 337 339 339 335 342 341 337 333 331 317 300 298 299 304 308 320 310 307 303 303

GFSFLT1_sfc_thetae_057.txt.gz
Theta_e
337 338 339 339 341 343 344 345 347 348 348 349 351 352 354 356 357 350 350 354 350 349 349 352 360 362 363 364 365 364 364 360 359
334 337 338 339 341 342 344 345 347 348 349 350 351 349 353 355 356 356 352 356 355 351 356 351 356 360 361 362 363 364 364 359 360
332 337 339 340 341 342 344 345 347 349 350 350 351 351 352 353 355 356 356 356 355 356 354 355 354 358 360 361 363 364 364 361 362
328 334 338 340 341 344 345 345 347 348 348 351 350 351 352 353 353 353 354 354 355 357 356 356 356 358 358 360 360 362 363 362 362
328 333 338 340 342 343 344 345 346 346 347 347 349 352 352 352 353 354 352 354 354 357 358 356 356 358 359 359 359 360 360 359 358
328 334 337 340 341 342 343 346 347 347 347 346 347 351 349 350 351 352 354 355 355 357 357 357 354 356 357 357 358 359 360 360 360
321 328 335 338 339 342 344 346 348 349 347 347 348 348 348 351 352 353 353 356 357 355 358 356 356 356 357 357 357 358 358 359 360
320 320 325 335 338 342 344 346 348 349 349 350 349 350 350 351 354 355 356 357 357 357 357 358 359 357 356 356 355 354 358 358 359
326 328 329 328 338 341 343 346 345 347 349 349 351 351 351 354 355 356 356 357 357 358 357 357 358 356 356 356 353 339 338 352 357
322 326 330 333 331 339 343 345 346 346 348 350 350 351 352 354 356 355 356 357 358 358 358 356 356 355 356 357 360 334 333 338 356
318 322 325 331 336 335 346 343 344 347 348 350 350 350 352 354 355 355 356 356 356 357 358 359 359 358 359 358 359 333 330 334 354
317 321 328 333 338 340 336 346 348 348 349 350 350 350 351 353 355 355 356 356 357 357 356 356 356 357 358 358 360 330 328 334 353
318 326 331 336 344 342 336 347 348 348 347 350 349 351 353 355 355 355 356 357 358 360 359 356 355 355 358 349 360 333 324 331 352
322 327 331 344 342 343 348 349 347 347 348 348 352 353 353 356 358 357 359 360 360 359 358 359 359 358 360 359 355 356 323 320 353
316 319 325 336 344 342 346 349 349 348 349 354 356 357 355 357 359 355 355 360 359 360 360 359 360 360 359 360 362 336 327 320 323
313 314 315 323 336 339 346 349 349 348 352 355 357 357 358 358 359 359 362 360 359 356 359 356 356 356 356 357 361 363 325 319 318
311 314 314 315 317 322 332 343 347 350 354 353 354 355 357 357 357 356 360 358 357 356 356 356 355 356 356 358 360 362 364 355 343
312 314 316 315 314 315 317 328 338 345 348 356 353 353 352 353 353 354 357 358 355 357 361 350 357 358 359 358 358 360 346 349 362
312 313 315 317 316 315 316 322 326 332 339 348 348 349 352 347 356 351 353 353 342 306 308 305 305 307 329 358 327 317 313 310 311
311 314 315 317 317 318 319 322 323 327 331 338 343 346 346 341 340 355 350 349 350 348 325 302 300 299 303 306 312 312 306 304 303

GFSFLT1_sfc_thetae_060.txt.gz
Theta_e
340 341 343 343 342 343 344 347 348 350 354 359 359 358 361 363 364 354 355 358 354 353 351 352 359 364 365 366 366 367 367 361 360
334 338 341 343 346 347 346 346 350 353 356 357 358 356 362 363 363 362 356 364 359 354 362 354 357 360 364 364 365 366 367 361 363
331 336 341 343 345 347 349 348 349 351 353 356 357 356 358 358 358 362 362 361 361 361 358 360 358 358 360 360 362 365 367 363 365
328 336 340 343 345 347 349 350 349 350 351 353 354 356 359 359 357 358 359 358 360 360 361 361 361 360 359 358 361 364 365 365 362
329 332 338 342 344 347 348 349 349 348 350 351 353 357 361 359 359 360 356 358 359 362 361 362 362 362 360 358 359 362 364 362 359
329 331 334 339 343 345 347 348 349 348 349 350 352 355 354 355 356 356 358 360 359 363 361 362 360 361 361 359 358 360 363 363 362
325 330 335 338 342 344 347 350 354 353 349 350 351 352 352 356 357 357 357 362 363 361 365 362 362 362 361 360 359 357 359 360 361
324 323 329 336 340 344 350 352 355 355 351 353 353 357 352 356 361 362 362 363 364 364 364 362 363 362 362 361 359 354 358 358 358
327 328 329 330 338 343 346 349 353 356 357 355 356 359 356 360 364 364 364 365 365 367 366 365 364 362 361 360 357 340 336 350 355
325 327 331 335 338 338 343 347 351 353 358 358 358 360 360 362 364 364 365 366 366 366 366 365 364 362 362 363 364 335 332 338 354
326 329 331 334 336 340 342 345 346 352 354 360 360 361 361 363 364 364 365 366 366 367 365 365 364 362 365 365 364 333 330 334 356
327 331 335 338 340 342 345 345 347 351 351 355 356 360 361 363 365 363 364 364 365 366 363 364 364 362 364 366 365 330 329 336 356
327 333 337 340 344 347 348 348 345 347 349 352 356 358 361 364 365 365 364 365 366 366 363 361 360 361 365 353 366 334 325 335 356
322 325 333 341 349 350 350 351 345 352 352 352 356 356 357 362 364 366 366 368 367 365 363 363 364 362 365 367 361 361 323 321 358
317 318 324 335 348 349 349 347 347 357 356 358 360 360 358 363 365 359 359 368 366 365 365 365 366 364 361 361 364 337 325 320 325
313 316 318 318 335 346 353 352 352 352 362 362 362 361 363 362 362 361 365 363 363 360 364 359 359 358 358 358 362 365 327 319 319
310 312 315 317 319 325 338 351 355 355 358 360 360 360 362 361 360 359 361 361 361 359 358 357 357 357 357 359 361 363 366 358 342
310 312 314 319 317 319 325 336 341 350 357 358 357 358 359 360 360 360 361 362 358 360 365 351 359 359 360 359 359 361 347 350 366
313 313 316 319 319 319 321 324 328 334 343 358 356 355 355 355 356 358 359 359 357 308 312 308 309 310 329 361 331 323 317 317 316
313 316 317 318 319 319 322 323 325 328 335 347 353 351 356 357 355 356 357 358 357 353 330 305 303 305 306 308 312 310 308 303 304

GFSFLT1_sfc_thetae_063.txt.gz
Theta_e
339 340 341 343 344 344 348 350 352 354 359 363 365 363 363 362 365 353 352 360 353 350 349 352 371 366 364 366 367 364 369 361 360
333 339 341 342 344 345 348 350 354 355 359 363 365 360 365 366 363 359 353 363 366 357 362 354 357 361 364 363 363 367 371 360 366
332 338 341 343 344 345 346 348 351 355 358 363 362 362 364 363 363 364 364 366 369 363 365 367 361 362 361 363 366 366 373 365 368
332 338 339 342 344 347 347 348 349 351 354 359 360 362 364 362 362 360 363 365 367 367 367 370 368 366 364 362 362 366 371 370 366
329 333 338 341 343 347 348 349 349 350 351 352 357 360 363 362 364 361 360 363 364 370 369 369 370 367 367 363 361 366 369 363 363
328 331 336 340 342 345 347 350 352 349 350 350 352 359 358 361 362 362 360 365 364 368 369 370 363 367 368 365 363 365 369 369 366
326 332 335 336 339 343 347 351 356 356 351 351 351 353 354 358 360 362 361 364 367 367 369 369 369 370 369 367 364 364 363 365 366
326 327 330 333 335 343 354 356 359 358 353 356 354 356 354 357 363 363 364 363 367 367 369 369 371 370 369 369 363 357 363 364 365
327 330 328 331 338 342 345 351 359 359 359 357 356 358 355 359 364 364 364 364 366 369 369 370 371 369 370 368 358 342 338 354 360
327 329 332 335 337 340 344 348 355 357 360 359 359 361 360 361 363 363 364 365 366 367 368 371 371 370 370 369 369 336 333 338 356
329 331 333 335 336 339 343 345 349 354 357 362 362 360 365 363 365 365 367 367 366 368 370 369 369 370 371 371 369 336 329 334 360
330 334 337 339 341 342 344 344 347 352 354 362 362 364 362 365 365 366 367 366 368 369 370 369 369 370 371 371 370 332 329 335 359
329 332 335 339 343 346 346 348 348 346 350 355 360 364 364 367 368 369 368 369 369 371 371 369 364 367 371 359 372 336 326 335 357
326 329 331 331 340 350 353 353 350 350 351 354 361 364 366 369 370 370 371 372 372 372 370 366 370 369 370 371 366 367 324 322 360
320 324 327 328 331 342 358 356 355 357 354 361 366 366 365 368 371 366 367 372 372 372 371 369 371 369 368 365 373 341 325 320 326
316 319 324 324 324 330 335 352 356 359 361 369 367 367 366 368 369 369 370 370 370 365 368 361 361 359 357 357 359 365 327 319 320
314 318 320 321 321 323 324 330 341 349 364 369 369 367 368 368 367 366 368 364 365 361 359 359 358 358 357 355 355 355 361 352 337
316 318 320 319 318 319 321 323 327 332 342 356 360 365 363 365 361 361 364 364 362 360 363 351 356 353 353 352 355 356 346 349 362
315 317 318 319 318 318 320 321 323 325 329 334 355 356 358 357 358 359 359 360 356 311 319 309 311 309 332 355 320 316 310 310 314
315 317 317 317 318 319 320 320 320 322 325 329 343 357 358 358 352 358 360 359 358 355 329 309 307 310 309 310 307 310 308 310 308

GFSFLT1_sfc_thetae_066.txt.gz
Theta_e
333 340 341 342 344 345 346 346 346 348 353 354 356 358 353 355 361 355 356 363 357 363 355 358 363 366 366 368 368 367 367 364 365
328 335 340 342 344 345 348 348 347 349 353 355 357 356 358 353 359 358 353 362 366 359 365 362 364 366 367 368 366 366 367 361 363
331 333 332 338 344 346 348 349 350 350 354 355 358 357 359 356 353 358 359 354 364 361 365 364 364 366 365 365 369 368 366 362 363
326 330 332 337 334 347 348 349 351 351 352 356 358 360 358 358 356 355 354 357 355 360 361 373 368 371 367 365 364 369 368 364 362
329 332 331 332 332 342 347 348 349 351 352 354 359 360 359 358 360 357 355 351 359 363 367 365 374 367 370 365 364 365 365 363 358
331 334 331 334 339 344 345 347 349 350 352 352 358 360 359 359 358 358 357 353 356 362 360 364 363 369 364 366 363 362 363 364 363
326 334 334 338 341 339 348 348 348 350 351 353 354 358 358 358 358 358 357 358 354 359 364 362 363 363 365 365 364 362 361 365 364
326 327 331 334 343 339 346 350 351 351 351 352 353 354 355 357 359 359 360 358 359 358 359 362 364 363 364 365 364 361 360 360 362
328 332 333 338 340 347 347 351 354 354 353 353 353 353 354 357 358 359 360 359 359 360 360 362 363 364 363 363 363 345 340 354 357
326 330 333 335 337 340 345 347 355 356 355 356 354 354 355 356 358 358 359 360 358 360 359 361 362 363 364 364 364 338 335 340 356
325 331 335 337 336 340 343 345 347 358 358 358 358 354 357 357 358 357 359 359 359 358 360 360 362 363 364 365 365 339 330 335 353
326 329 333 336 339 342 347 348 348 350 358 357 356 358 356 358 356 358 359 358 359 359 359 361 361 362 364 364 365 335 331 333 351
325 328 331 333 332 335 343 350 349 348 349 359 355 355 360 361 358 359 359 359 359 361 361 360 362 362 364 355 364 338 328 333 355
322 323 327 331 332 334 341 343 349 350 350 350 360 360 359 362 365 360 363 363 363 362 362 362 363 362 364 366 362 362 326 322 356
318 319 323 327 327 329 335 338 340 345 353 354 360 364 361 365 362 364 363 364 365 364 364 362 362 362 363 364 367 341 327 320 327
316 319 322 323 322 323 327 330 333 336 350 361 360 364 362 363 367 365 365 365 364 363 364 362 361 360 360 362 364 366 329 320 320
315 318 318 319 320 318 320 323 326 330 339 345 361 361 364 363 366 364 364 364 365 364 362 362 361 359 360 360 361 362 365 344 333
315 317 318 319 318 318 319 320 321 324 331 337 351 365 364 363 363 361 363 362 364 363 365 360 361 360 359 359 357 357 344 349 355
315 317 317 318 319 317 318 318 318 323 328 333 342 359 361 360 360 361 361 360 353 311 317 311 317 322 342 340 314 307 306 305 322
313 316 318 316 315 314 316 316 317 319 323 327 333 346 348 359 352 357 359 359 359 352 329 307 305 305 311 320 314 306 306 310 310

GFSFLT1_sfc_thetae_069.txt.gz
Theta_e
332 333 333 335 337 337 337 339 342 344 344 346 347 345 344 347 349 345 347 349 348 351 352 351 353 356 353 354 355 355 353 351 352
332 334 333 333 338 338 338 340 340 344 344 344 348 347 343 345 351 344 345 347 351 350 348 352 353 358 354 357 355 355 354 350 350
325 329 333 336 338 339 339 340 342 343 346 345 348 348 346 344 347 351 347 346 349 350 346 350 354 358 357 358 355 353 354 349 352
323 327 332 336 337 337 337 338 342 343 346 346 348 347 350 345 343 350 349 346 344 349 349 353 357 357 356 356 357 356 354 350 353
327 331 334 334 337 338 331 333 342 342 344 347 349 350 350 350 345 346 349 346 344 349 348 350 355 358 357 356 353 354 355 350 351
327 328 332 329 329 325 327 333 338 343 344 348 350 351 349 350 350 344 346 346 346 345 354 349 351 355 355 353 354 353 354 355 352
325 328 329 329 327 329 331 336 338 344 344 347 351 352 352 350 350 350 345 345 343 351 352 354 354 355 354 355 353 353 353 354 355
326 328 329 330 331 332 338 340 342 342 346 346 351 352 353 352 352 352 353 349 346 343 353 351 352 353 355 356 356 356 352 353 355
322 326 331 335 335 338 340 344 338 341 344 347 348 351 353 354 353 353 352 352 351 344 346 354 352 351 354 356 358 345 342 350 351
322 324 325 327 331 335 338 339 340 336 339 348 348 348 352 352 353 353 352 353 351 350 345 347 351 355 355 354 357 339 338 342 351
320 321 324 326 327 329 335 339 338 339 342 342 345 346 348 351 352 352 353 353 351 351 352 350 350 352 355 356 357 338 334 338 349
319 318 321 324 327 328 332 340 342 341 342 339 337 345 348 350 351 352 352 351 352 352 352 353 351 354 355 355 357 335 333 332 340
317 318 319 322 325 326 328 333 336 339 331 330 332 343 350 351 351 352 351 353 352 354 352 351 354 353 356 350 357 335 330 332 349
314 316 318 322 321 321 324 327 328 331 335 341 346 350 352 353 351 352 353 353 353 353 353 352 351 353 354 356 355 355 328 324 353
312 313 318 318 317 319 321 323 322 325 327 332 337 342 352 352 354 352 354 353 354 353 353 352 351 351 353 356 358 338 330 323 325
312 314 316 316 314 316 318 320 320 319 322 327 330 335 347 350 355 353 353 354 353 353 353 352 352 352 352 354 357 359 329 322 321
311 314 314 316 315 314 315 317 319 320 322 325 327 332 344 355 355 355 353 357 356 355 354 354 353 353 353 354 355 357 360 341 331
309 311 313 313 314 312 313 315 316 319 320 321 323 327 340 355 355 352 356 357 357 357 358 354 355 355 355 353 354 355 346 348 351
310 312 314 313 313 311 310 312 313 317 319 319 321 324 338 350 355 356 357 355 343 310 314 316 318 326 345 343 322 326 323 316 319
309 313 312 312 311 310 309 309 312 316 317 320 320 321 327 336 345 353 355 355 354 343 324 309 304 306 320 319 322 305 305 306 308

GFSFLT1_sfc_thetae_072.txt.gz
Theta_e
332 330 331 333 334 333 335 336 338 340 343 342 343 344 344 345 342 342 342 345 347 348 350 352 353 355 351 351 351 351 350 348 349
329 332 333 334 337 335 336 337 337 340 342 342 342 342 342 343 347 342 342 345 347 349 349 350 351 354 351 352 351 351 349 347 346
326 333 333 335 337 339 339 338 339 340 342 342 344 343 342 342 343 347 341 344 344 348 347 348 349 354 351 350 352 351 350 347 347
325 331 333 335 338 339 339 338 339 341 341 341 344 345 343 341 341 344 344 342 344 345 345 347 349 354 352 352 352 350 349 347 346
326 331 334 335 337 338 338 336 336 340 342 342 342 346 345 342 340 342 345 345 342 344 345 348 352 354 353 353 354 350 349 347 348
327 328 330 331 332 334 336 337 335 337 341 344 344 345 345 345 341 340 342 346 345 340 345 345 352 353 353 353 353 353 352 350 348
325 327 330 331 329 332 332 332 334 334 340 345 345 345 345 345 346 342 339 344 345 344 341 345 346 352 353 353 352 352 352 353 350
325 328 331 331 332 332 333 335 336 341 341 343 347 346 346 345 348 348 344 340 344 343 345 345 349 348 352 353 352 353 351 351 350
323 326 326 327 332 337 336 337 339 341 341 342 347 346 346 348 347 349 349 344 341 342 341 347 347 351 351 351 354 342 340 347 350
320 323 325 326 328 330 335 339 340 338 338 341 342 346 348 349 349 348 349 350 346 343 341 340 347 346 350 351 353 337 336 341 350
315 319 322 325 327 330 336 337 337 339 340 343 342 343 347 351 351 350 350 350 350 348 346 341 342 350 347 348 351 335 333 338 350
312 314 319 324 326 327 331 329 330 336 341 341 339 337 338 344 353 352 351 349 349 350 349 347 343 344 351 351 351 331 331 334 348
312 314 319 320 323 323 323 323 326 330 334 336 336 338 337 343 346 351 351 351 351 351 351 350 349 347 347 342 351 333 328 331 350
312 315 317 318 319 319 321 322 323 323 326 328 329 333 334 337 342 350 352 352 352 352 351 350 350 350 350 351 350 350 326 324 351
311 313 316 317 316 318 319 320 319 318 319 323 327 330 331 334 339 351 351 352 352 352 350 350 348 349 350 352 353 336 329 323 326
308 312 314 315 315 315 316 317 316 315 318 321 323 326 329 332 337 348 351 350 349 350 350 349 348 347 347 349 353 354 327 322 322
305 309 312 314 314 313 313 314 315 315 317 319 320 323 326 330 336 345 350 352 350 350 349 348 348 348 347 348 350 353 355 343 333
304 306 310 313 310 310 310 311 312 313 316 318 318 320 323 327 337 344 352 350 350 351 352 348 350 350 350 349 349 351 342 345 351
304 305 311 313 312 310 307 308 309 312 314 316 317 318 320 324 328 334 352 351 338 311 315 317 318 320 340 351 333 324 320 316 316
306 309 309 305 308 305 305 306 306 310 311 314 313 314 318 321 324 332 347 352 346 344 325 310 308 310 316 318 329 310 309 311 310

GFSFLT1_sfc_thetae_075.txt.gz
Theta_e
332 333 334 333 334 331 333 335 335 340 340 339 341 342 341 339 338 340 340 342 343 345 347 348 350 351 350 349 347 348 346 346 346
330 333 333 334 335 332 332 335 335 339 340 340 341 342 342 341 339 338 339 343 344 345 346 350 350 353 350 349 349 348 347 346 345
326 332 331 332 335 332 333 334 336 337 341 340 341 342 342 342 343 342 339 340 344 345 345 346 348 352 349 348 349 348 347 345 345
322 329 330 332 335 335 335 335 336 337 338 340 340 341 342 341 341 342 342 340 341 343 346 345 346 350 350 346 348 349 347 345 345
324 329 331 333 335 336 334 335 336 336 338 339 340 342 341 340 340 341 342 342 341 341 342 344 347 347 350 349 349 349 347 346 348
325 328 331 333 334 334 333 333 334 337 337 339 341 342 341 340 339 339 339 342 343 340 341 343 346 349 350 349 350 349 348 347 346
325 327 328 329 328 330 334 333 333 334 337 340 340 342 342 341 340 339 339 340 342 343 340 342 344 349 350 351 351 351 351 349 347
323 323 324 327 329 331 335 334 332 334 339 339 342 340 342 342 343 341 339 339 340 341 343 342 343 345 349 350 351 352 351 351 350
317 321 324 325 327 332 337 337 336 337 339 341 343 342 341 343 344 344 341 338 338 340 341 342 340 342 345 348 352 341 339 347 349
310 313 321 322 324 326 332 333 334 335 336 338 340 343 343 344 343 343 345 343 338 337 339 340 340 342 345 345 348 335 335 339 349
308 311 317 320 322 322 326 328 328 331 339 338 340 340 343 345 346 343 345 347 344 340 339 339 338 339 342 346 347 334 331 336 348
309 311 315 317 319 321 322 322 323 328 336 338 338 338 338 342 348 347 346 346 346 346 343 341 340 339 339 341 344 331 330 332 345
309 313 316 316 318 319 319 320 321 324 325 329 328 332 338 341 344 349 350 349 347 349 348 346 346 343 341 338 345 328 326 331 349
309 311 315 316 317 317 316 318 317 318 321 320 324 328 331 334 337 341 343 348 351 350 349 349 348 346 345 343 344 347 323 323 347
307 308 312 315 315 315 317 316 315 314 315 319 322 324 328 330 333 338 344 346 349 351 349 348 347 347 347 348 346 330 325 321 326
305 306 309 313 312 314 314 314 311 310 312 316 319 320 321 325 329 333 338 346 348 349 349 348 347 346 346 347 349 349 324 320 320
302 304 306 309 311 312 309 311 311 311 312 314 315 318 319 321 325 328 336 344 349 348 348 347 347 347 346 346 348 350 351 339 330
301 302 304 307 310 308 309 309 309 310 311 313 312 314 315 319 324 325 329 336 349 349 350 347 348 347 348 346 345 347 340 342 347
300 301 303 306 310 309 307 307 307 309 310 310 311 309 312 316 318 322 326 333 345 313 317 316 314 315 335 348 330 319 313 312 312
302 301 303 308 308 307 305 304 305 307 308 310 308 308 309 314 316 321 324 328 335 347 330 307 305 307 311 314 329 310 308 308 308

GFSFLT1_sfc_thetae_078.txt.gz
Theta_e
331 335 335 335 332 332 333 334 335 336 338 339 340 342 340 340 341 342 342 344 345 345 347 350 353 353 353 352 352 351 350 349 349
326 333 335 334 336 331 334 334 335 336 337 338 340 342 341 339 340 341 341 344 346 347 349 351 352 354 354 351 350 352 352 350 349
322 326 333 334 335 332 333 335 335 337 339 338 339 342 342 341 340 341 342 343 345 347 349 350 353 354 355 353 351 350 351 350 351
324 325 332 333 335 334 333 335 336 336 339 339 339 341 342 342 342 341 340 341 344 347 349 349 350 352 354 354 350 351 350 350 351
325 328 329 332 334 334 334 333 335 335 337 340 340 341 342 342 343 343 342 341 342 345 347 349 350 351 353 353 352 352 352 349 352
322 327 328 330 333 334 334 336 336 336 337 338 341 341 341 342 341 341 343 343 343 344 345 346 348 350 350 352 352 352 352 351 351
322 324 325 330 332 331 334 335 336 337 338 340 340 341 340 340 341 340 341 343 344 343 344 344 346 348 350 352 353 353 353 352 351
314 320 320 322 325 333 335 337 337 337 338 340 340 340 341 340 342 342 341 342 342 345 344 344 346 346 350 352 353 352 353 353 352
309 314 317 319 321 321 327 327 329 334 338 340 342 340 340 343 343 343 341 341 341 342 344 344 343 344 347 350 352 341 339 349 353
307 311 315 316 319 319 322 323 325 327 331 339 340 342 342 342 344 344 344 342 340 340 341 344 342 343 344 346 349 335 335 339 353
305 308 313 315 317 319 320 323 321 325 331 338 339 340 343 343 343 343 345 345 341 340 340 341 341 343 344 344 345 331 332 336 350
305 307 311 315 316 319 320 320 319 322 327 327 329 333 338 343 347 344 344 345 346 344 341 340 340 341 342 344 345 327 327 333 349
304 308 310 314 316 317 318 319 318 318 322 322 322 324 327 331 336 342 346 345 346 347 347 343 342 342 342 336 343 327 324 329 346
302 305 307 312 313 315 316 318 316 315 316 317 320 323 325 329 332 335 340 344 350 348 349 347 346 344 345 344 340 342 321 322 346
300 301 304 307 308 311 315 317 313 312 312 316 319 321 324 326 329 332 336 338 342 348 350 348 348 347 347 348 346 328 323 319 324
299 301 303 306 306 308 313 315 314 310 312 315 317 318 320 322 326 330 334 336 338 341 348 349 347 347 347 348 350 348 322 319 318
297 300 301 304 304 305 308 313 312 311 313 313 314 314 316 318 321 323 327 333 337 337 346 348 348 348 347 348 349 350 351 337 329
298 299 301 302 303 304 305 311 310 311 311 312 310 312 312 314 318 319 322 327 331 334 340 346 349 350 351 349 347 349 340 341 346
299 299 301 301 302 303 305 309 308 308 310 309 309 308 309 312 314 318 320 322 326 319 314 313 312 314 335 350 331 321 312 313 310
301 302 302 301 301 302 305 309 306 306 307 306 305 306 307 309 311 316 318 320 322 326 329 312 308 306 307 310 329 307 307 306 307

GFSFLT1_sfc_thetae_081.txt.gz
Theta_e
331 334 339 341 340 340 342 342 344 345 347 351 351 352 355 356 356 353 354 357 354 354 355 356 362 364 364 363 362 361 361 358 357
329 331 338 341 342 340 342 343 344 346 348 350 350 350 353 354 355 354 354 357 359 356 360 357 361 362 363 364 363 363 362 357 358
328 333 333 340 343 341 341 343 344 345 347 348 351 350 352 352 351 354 355 356 357 358 359 361 360 361 362 362 363 362 362 359 360
326 334 333 338 343 344 343 343 343 343 345 346 348 349 353 352 351 351 353 352 354 358 359 361 361 362 362 362 362 363 363 362 360
325 330 336 339 340 343 341 342 343 342 344 344 346 349 350 351 352 352 350 351 353 356 358 360 361 362 362 362 362 363 361 360 359
322 323 324 325 337 340 341 340 342 343 343 344 346 347 345 347 347 350 351 351 352 354 355 357 357 360 361 362 362 362 362 362 361
320 320 319 321 321 326 329 340 343 343 344 345 346 347 347 347 347 347 348 354 354 353 354 355 355 357 358 360 362 362 362 362 362
318 318 318 318 319 320 324 325 329 337 343 345 346 346 346 347 352 352 350 348 354 354 354 354 355 356 356 358 357 357 361 362 361
314 316 317 318 319 320 320 321 322 328 334 340 347 345 345 350 351 353 352 352 351 355 354 354 354 353 355 355 352 339 339 354 360
310 312 315 318 318 320 321 321 321 323 329 336 344 344 347 349 351 350 352 352 352 353 353 354 353 353 354 356 358 334 334 340 357
308 311 313 315 318 319 321 323 322 323 327 328 332 343 345 349 350 350 352 351 351 352 351 351 352 352 355 355 354 332 330 335 356
305 307 311 313 316 318 320 322 323 321 322 323 324 326 332 334 337 347 350 351 351 351 350 350 350 351 353 354 355 329 327 334 353
304 305 307 309 312 315 317 319 322 321 316 319 318 319 323 330 335 337 338 350 353 354 354 351 350 350 353 344 354 332 323 330 348
304 305 306 308 310 311 313 317 319 319 318 314 318 321 321 325 330 333 337 340 344 351 354 355 354 351 353 354 351 351 323 320 349
303 303 305 306 307 309 312 314 317 317 318 317 317 320 320 322 326 329 333 335 339 341 343 349 354 353 352 353 355 333 327 319 321
302 303 304 305 306 307 310 312 314 315 318 320 315 315 318 320 323 325 330 331 334 338 342 343 348 350 349 348 355 356 323 318 317
301 302 303 305 305 306 307 310 312 314 318 319 318 314 315 318 319 320 325 332 333 335 340 341 343 348 347 349 351 356 357 348 336
302 301 303 305 304 305 306 308 310 312 316 317 316 316 315 315 315 318 320 325 328 332 336 335 338 342 349 348 350 354 342 344 354
301 300 302 305 306 306 307 307 308 311 316 316 312 311 312 314 314 315 316 320 322 315 312 311 307 306 314 339 330 321 313 313 312
300 300 302 301 302 307 309 310 309 310 315 315 312 309 308 311 310 313 315 318 321 320 321 312 308 306 305 303 316 311 306 306 306

GFSFLT1_sfc_thetae_084.txt.gz
Theta_e
335 337 343 342 342 346 346 347 349 351 352 356 358 358 359 361 363 357 357 357 352 354 354 356 361 366 363 362 363 364 364 357 356
335 336 339 342 345 346 346 348 350 352 354 356 357 357 359 360 361 361 356 358 359 355 359 356 362 364 360 362 364 366 366 357 361
331 339 338 341 346 347 348 348 350 353 354 355 357 357 357 358 359 361 361 360 359 359 357 361 361 364 364 361 364 365 366 360 363
326 330 339 342 346 346 349 349 350 350 352 354 356 357 356 357 357 358 360 358 358 359 360 362 365 365 365 361 362 365 366 363 361
323 326 333 330 334 341 347 347 348 349 350 351 354 356 357 357 358 358 356 357 357 359 360 360 363 366 366 364 362 364 365 361 357
320 321 324 324 329 331 334 339 344 348 349 350 351 354 352 355 355 356 355 356 358 358 359 360 360 362 363 364 361 363 367 364 362
321 319 320 322 322 323 324 332 339 340 345 349 350 351 352 352 352 352 353 354 357 358 359 359 358 359 361 362 362 360 363 364 364
323 323 321 319 320 322 324 325 326 333 340 345 349 350 351 352 356 356 354 356 355 357 359 359 360 358 358 359 359 358 360 361 364
318 320 321 323 323 322 322 322 323 325 330 333 342 349 350 353 355 356 357 358 357 356 358 359 360 358 357 356 351 340 338 353 364
315 317 319 320 322 323 325 326 325 323 326 328 331 335 348 350 354 354 356 357 358 358 356 357 361 359 358 359 359 334 332 340 356
311 312 313 317 319 321 323 325 327 328 326 325 324 324 327 332 344 349 355 356 357 357 357 357 357 358 360 360 359 333 331 334 356
311 311 312 313 315 316 321 322 324 327 327 326 324 322 322 324 327 335 343 351 355 357 356 358 357 357 358 360 360 330 328 336 354
310 311 312 312 313 315 316 318 320 322 324 325 324 323 325 324 326 330 331 342 351 358 363 356 355 355 358 349 359 335 324 332 351
310 310 311 312 313 313 316 317 317 318 321 322 324 326 326 327 325 326 329 331 340 351 358 360 360 358 359 361 356 356 323 321 353
309 309 310 311 311 312 315 316 316 317 319 323 325 326 326 326 327 328 328 331 334 338 347 351 354 356 357 359 362 337 330 319 322
308 309 309 310 310 311 313 315 316 315 318 321 323 324 324 325 324 325 328 328 332 333 340 344 348 343 346 354 358 359 326 321 318
307 308 308 309 309 310 311 314 314 315 317 319 320 321 322 323 323 318 323 326 327 331 336 338 341 344 344 350 360 357 359 356 344
305 306 307 307 307 308 310 313 314 315 316 317 316 319 320 320 320 322 317 321 324 326 330 330 331 339 343 344 346 355 331 332 355
305 305 304 305 304 305 308 309 312 316 317 316 314 316 317 316 317 318 319 316 320 314 310 307 305 304 313 333 320 314 313 312 311
304 304 304 303 302 305 306 308 308 313 315 316 314 312 317 316 313 316 317 318 319 319 319 310 307 303 304 304 308 307 306 303 303

GFSFLT1_sfc_thetae_087.txt.gz
Theta_e
336 338 342 342 343 344 345 346 346 349 354 359 360 359 363 366 364 358 355 358 360 352 361 355 370 365 363 363 362 362 364 359 356
339 337 342 344 347 342 344 347 349 350 355 358 360 360 362 365 365 364 359 367 361 356 361 355 360 362 362 362 363 364 365 358 360
335 341 340 344 344 344 343 346 347 350 353 356 360 361 360 360 362 364 363 361 361 362 362 359 353 361 362 362 363 362 365 364 366
327 335 340 345 345 342 348 348 347 350 352 355 357 360 361 361 360 361 362 360 360 361 361 362 362 366 362 364 363 364 366 368 363
326 330 333 334 338 340 341 344 344 344 348 351 355 359 361 359 360 361 359 361 361 364 364 361 362 362 364 362 362 367 365 360 357
322 326 330 328 331 332 332 338 344 342 345 345 350 356 357 358 358 358 359 360 361 364 363 363 358 362 366 361 362 365 365 364 363
321 322 325 327 327 326 330 330 332 338 338 343 348 348 352 356 357 359 359 362 363 360 365 364 363 363 366 364 363 362 362 363 364
322 322 322 322 323 325 326 327 328 331 334 340 343 348 351 348 358 359 359 360 361 360 365 364 364 364 364 365 359 357 364 364 362
319 320 322 325 325 325 325 326 325 326 328 331 337 340 340 347 353 355 360 361 359 360 359 364 368 364 364 363 353 340 338 355 362
318 319 321 322 323 324 326 327 329 326 325 326 327 328 328 336 341 342 345 355 361 362 362 362 366 366 365 365 366 336 332 339 356
315 315 316 318 318 320 323 325 326 330 331 327 326 325 326 328 331 336 339 344 354 360 360 359 363 362 366 367 365 335 330 334 358
315 315 316 317 318 319 321 322 323 325 328 330 330 328 329 327 327 328 332 338 340 351 358 362 359 360 362 365 366 333 328 335 355
313 314 315 316 316 318 318 320 321 321 322 325 326 328 329 331 332 329 326 328 333 339 348 356 362 360 362 351 364 338 326 332 354
313 313 313 315 316 316 318 319 320 320 321 321 325 326 328 330 331 332 331 330 332 333 337 344 353 359 363 363 358 361 324 322 358
311 312 312 313 314 315 317 318 318 318 320 323 324 325 326 328 330 329 329 332 335 334 336 338 345 354 356 358 366 341 333 320 323
310 311 312 313 312 313 316 317 318 316 319 321 322 322 323 326 327 328 330 328 331 329 337 337 338 342 345 350 358 362 332 321 319
309 310 310 311 311 311 313 315 315 317 319 320 319 320 321 322 324 324 325 327 326 325 326 330 332 333 337 335 337 354 364 358 345
308 308 309 310 309 309 309 311 313 315 317 319 318 318 318 319 320 322 324 326 324 324 327 322 324 326 328 328 330 337 318 317 329
308 308 309 309 309 309 308 307 309 312 314 316 317 316 316 316 317 318 318 319 319 310 309 307 307 303 312 324 315 310 306 304 304
307 309 308 308 307 308 308 308 307 308 310 311 311 314 315 316 315 317 317 318 318 317 317 306 305 302 302 300 305 301 300 299 300

GFSFLT1_sfc_thetae_090.txt.gz
Theta_e
334 333 341 339 340 344 345 345 344 350 356 358 360 361 363 366 366 363 357 360 359 351 357 356 364 364 368 370 367 367 367 365 363
337 336 340 343 343 345 346 344 343 349 356 358 360 360 363 365 366 365 359 365 368 366 362 353 356 360 366 369 365 365 368 364 364
332 336 341 342 341 343 347 349 346 352 355 358 361 361 362 362 364 366 367 369 360 370 360 350 352 352 352 364 367 364 365 363 362
329 330 333 336 339 341 345 343 340 341 347 356 360 361 362 362 362 364 366 365 369 368 371 356 351 338 340 358 365 367 367 362 357
328 327 327 332 335 338 338 336 341 343 345 347 355 360 363 363 363 363 363 364 365 369 368 369 363 354 357 362 366 363 362 363 360
325 326 327 327 330 331 333 334 333 338 341 343 345 357 360 361 361 362 362 364 364 367 367 366 363 364 366 366 364 366 363 361 364
322 324 325 325 326 327 328 328 331 334 337 340 344 345 353 352 359 360 361 365 364 365 367 365 364 365 365 364 363 365 365 365 362
323 323 323 325 325 327 329 328 328 331 331 335 339 341 341 347 349 358 366 367 364 366 368 365 365 365 364 366 363 361 361 362 364
320 321 322 324 325 327 329 329 327 329 330 331 334 335 334 339 342 347 351 356 362 364 365 364 365 363 363 361 358 342 338 355 360
319 319 319 319 321 323 324 325 331 327 327 329 330 332 332 334 338 340 342 346 351 358 361 364 362 360 364 361 363 341 333 336 357
316 317 317 318 318 320 323 322 324 329 332 331 331 330 330 331 332 333 335 338 342 344 349 358 361 360 361 361 362 339 335 335 350
315 316 316 317 317 319 324 321 325 327 328 331 330 330 332 332 332 332 332 331 333 338 341 345 355 358 360 361 360 334 329 335 354
314 314 315 315 316 317 318 320 321 321 322 325 325 327 329 332 334 334 333 334 333 336 340 342 348 350 358 350 357 339 326 331 355
314 314 314 315 316 316 317 319 318 321 321 320 323 326 327 330 332 333 336 336 337 335 335 339 342 346 352 357 354 355 327 322 354
312 312 313 314 314 314 317 318 318 318 320 323 325 325 325 327 330 329 328 335 334 334 337 337 339 343 346 351 356 336 335 322 323
311 312 313 313 312 313 316 318 317 315 320 322 323 323 323 324 326 328 330 331 330 329 331 337 337 337 337 340 339 342 324 321 320
310 310 310 311 310 310 311 314 314 316 318 320 320 320 322 322 322 322 325 326 325 327 326 326 329 330 331 331 332 339 339 333 330
308 308 309 310 309 309 310 311 311 312 314 314 313 316 318 319 319 321 322 326 325 324 328 324 323 324 325 323 324 326 313 314 325
309 308 309 309 309 309 309 309 310 310 311 311 309 309 311 314 315 317 318 319 320 314 309 306 305 305 312 324 313 307 305 299 299
307 308 308 307 307 308 308 308 306 308 309 309 307 306 307 309 309 312 313 316 316 315 316 308 303 301 302 301 308 303 300 297 297

GFSFLT1_sfc_thetae_093.txt.gz
Theta_e
333 333 332 333 336 337 338 336 342 345 347 348 348 350 350 351 349 347 345 348 347 348 347 348 355 354 355 354 354 352 353 349 350
330 334 340 337 336 338 339 337 341 345 348 349 349 352 352 353 350 349 350 350 354 349 350 356 357 355 355 355 354 352 353 350 351
328 333 338 339 341 342 340 343 343 347 346 348 351 351 354 354 352 351 352 353 351 349 348 349 350 350 352 353 355 353 352 350 350
325 328 331 337 336 337 339 343 343 341 341 343 344 350 353 353 353 354 354 353 354 352 346 349 346 343 344 345 350 353 351 350 349
325 327 329 331 334 336 336 337 342 341 343 343 345 344 346 354 355 354 352 354 355 352 349 348 345 337 334 338 349 354 353 351 351
322 324 326 327 327 329 331 333 335 339 340 342 344 343 344 347 352 355 351 353 355 356 354 351 349 348 343 349 352 354 352 351 351
322 322 323 323 322 322 326 329 329 331 334 340 341 340 342 342 343 345 350 356 356 357 357 355 354 353 353 355 354 354 355 352 351
320 321 322 322 323 323 324 325 327 327 330 335 335 336 339 339 343 344 343 344 352 355 354 357 355 353 354 356 355 355 354 354 353
318 319 320 322 323 324 323 324 325 327 328 331 331 331 334 338 339 340 340 342 344 351 351 352 353 354 355 353 357 345 342 350 352
314 314 315 315 316 315 315 322 325 324 324 328 329 330 331 333 334 334 335 338 339 340 341 349 350 351 349 352 355 341 337 336 345
312 312 312 312 314 315 315 317 318 325 327 327 327 327 328 330 332 331 332 333 334 335 337 339 342 347 352 351 353 339 331 336 340
311 311 310 310 313 315 315 315 316 319 321 321 320 321 323 327 329 328 330 330 332 332 334 336 339 342 345 350 349 334 330 333 344
310 310 309 310 312 313 313 312 314 315 316 316 316 318 319 323 324 323 325 327 328 330 331 332 337 337 342 340 349 335 328 329 343
309 310 309 310 311 311 311 313 313 312 314 313 316 317 318 320 321 322 321 324 324 324 326 330 332 335 338 343 344 341 321 321 338
308 308 309 310 309 310 311 311 311 310 309 312 315 316 316 316 317 319 321 321 323 324 323 324 329 332 335 339 336 322 319 317 318
307 307 307 307 306 307 308 309 308 306 309 310 311 313 314 315 315 317 318 319 317 317 320 318 324 328 327 328 331 333 318 317 320
304 304 304 306 305 304 305 306 307 306 306 307 306 306 308 310 312 312 313 315 317 317 315 316 317 316 317 318 319 322 332 324 325
303 303 304 304 303 303 303 305 305 305 305 305 303 303 304 306 307 307 309 312 312 314 315 311 308 311 316 315 314 316 313 309 315
303 303 303 303 303 303 303 303 302 303 304 304 303 302 303 303 303 305 307 308 309 310 307 305 302 301 303 314 311 306 303 302 298
305 304 302 302 301 302 302 301 303 303 303 303 303 300 301 301 302 303 303 304 306 306 309 307 304 302 302 299 301 300 299 300 296

GFSFLT1_sfc_thetae_099.txt.gz
Theta_e
333 331 334 332 333 336 337 338 343 341 340 337 339 342 343 343 342 340 342 342 343 344 344 346 347 348 348 347 344 343 346 345 345
330 332 335 335 335 337 337 338 342 343 341 338 340 340 343 343 343 343 342 343 342 343 345 347 348 348 349 349 349 347 347 345 345
328 333 336 337 336 335 338 338 340 345 346 343 341 342 343 343 343 346 344 342 343 344 344 345 349 349 350 350 350 349 347 346 345
327 329 334 336 338 339 338 341 341 341 342 341 343 345 343 344 346 345 344 345 346 348 347 347 347 349 349 350 349 349 347 346 345
326 329 331 333 337 339 338 339 339 339 339 341 341 341 343 345 346 346 345 345 346 349 347 346 346 346 345 346 347 348 348 345 347
324 325 326 328 330 332 337 339 340 340 340 341 341 340 339 342 343 342 344 345 345 348 347 344 344 342 341 341 342 343 347 349 347
321 322 323 325 326 327 330 334 337 339 339 341 342 341 339 338 340 335 337 339 342 345 348 343 343 342 339 337 334 338 345 347 347
318 318 319 321 320 321 325 328 331 333 335 339 341 339 339 338 338 340 339 338 339 340 343 347 346 345 345 343 343 347 346 348 349
317 317 318 320 321 322 322 325 327 328 330 332 335 336 337 338 337 337 337 336 336 336 337 339 341 345 347 346 351 342 337 346 348
314 315 316 317 319 321 322 323 325 325 327 329 329 330 331 331 332 331 331 332 332 332 333 335 336 338 342 343 345 333 330 334 343
312 313 313 313 313 316 321 322 318 318 319 319 320 322 325 326 328 330 330 330 329 330 331 331 333 335 338 339 343 328 327 331 337
311 311 311 310 312 314 314 314 314 314 314 315 315 315 316 318 321 325 323 322 325 328 329 330 331 334 335 336 338 326 322 327 339
310 309 309 310 311 311 310 308 310 310 309 310 310 311 313 314 315 316 316 319 320 324 324 324 328 330 334 332 338 318 319 327 338
309 309 310 309 309 307 306 306 307 305 306 306 307 309 309 309 309 312 312 314 315 315 318 319 321 327 335 335 330 327 316 318 329
308 307 307 307 304 304 304 304 304 301 302 304 305 305 306 305 305 307 309 308 311 312 311 311 310 311 315 316 320 318 317 314 315
306 306 304 304 303 302 302 302 302 300 300 302 302 302 302 302 303 304 304 305 305 307 308 307 307 308 308 309 313 314 312 312 313
302 302 302 302 301 300 299 300 300 300 300 301 300 299 299 299 299 300 301 304 306 305 303 303 305 305 304 306 308 308 306 306 306
303 301 300 300 300 299 298 298 298 299 300 299 298 298 298 297 298 297 298 299 301 302 302 301 301 301 301 303 303 305 300 298 302
301 300 300 299 298 297 297 298 298 298 298 298 296 296 296 296 295 295 296 296 296 301 301 300 298 297 298 301 302 298 297 296 296
302 299 299 299 298 297 297 297 297 298 298 297 295 294 294 293 294 294 294 294 294 294 297 299 298 297 297 297 296 296 295 295 294

GFSFLT1_sfc_thetae_102.txt.gz
Theta_e
326 328 332 333 335 335 335 339 339 340 340 339 342 343 342 342 340 342 342 345 345 346 347 349 352 351 352 351 350 348 348 350 351
328 327 330 331 335 336 336 337 341 340 341 340 341 343 343 343 343 343 343 345 346 348 348 350 352 351 352 352 352 350 352 350 350
329 333 333 334 333 336 338 339 340 344 342 339 341 342 344 344 344 345 347 346 346 345 347 348 350 348 351 350 353 353 352 352 352
328 331 334 336 337 337 338 342 342 344 343 343 343 344 343 345 345 346 347 347 347 348 351 349 349 350 351 352 351 353 352 350 351
329 331 334 337 338 337 337 340 341 341 341 343 343 344 345 346 348 348 346 347 347 350 351 350 349 350 351 352 351 353 352 351 350
326 327 329 331 334 336 337 338 339 340 340 340 341 342 341 341 339 341 341 344 347 349 350 350 347 347 349 349 349 350 350 351 352
323 325 326 327 328 331 337 338 337 338 339 340 340 340 339 339 337 338 340 341 342 343 348 350 347 347 346 344 345 345 346 349 351
320 321 322 324 324 326 330 333 334 336 338 341 341 340 340 338 339 340 339 338 339 339 341 343 349 348 348 347 344 343 345 346 349
317 318 319 321 322 325 326 327 328 329 331 334 338 340 338 338 337 337 335 336 336 336 338 339 341 343 347 348 350 337 334 341 351
316 317 318 319 321 322 324 325 325 324 327 329 329 329 331 332 333 332 330 332 332 333 334 337 337 338 341 342 346 327 328 334 344
314 315 317 319 320 318 318 318 318 318 318 318 318 318 320 326 330 327 327 327 328 329 330 333 334 336 338 339 341 324 323 328 344
312 312 313 316 316 315 315 315 315 315 315 315 315 314 315 317 321 321 321 321 323 326 325 325 330 334 336 339 328 319 322 333 343
310 312 314 313 312 311 310 310 311 310 309 310 310 311 311 314 316 316 318 320 321 324 323 323 328 335 334 327 330 314 316 325 329
309 311 311 310 310 308 307 307 307 305 305 305 308 309 309 309 310 311 312 314 315 316 318 318 317 318 318 319 315 312 311 312 321
307 306 307 308 306 304 304 305 304 302 302 304 306 306 306 307 307 309 309 310 311 311 311 311 311 311 312 314 316 310 308 308 310
306 305 304 305 303 302 303 303 303 301 302 304 303 303 303 303 305 305 307 307 306 305 307 307 308 308 307 308 310 308 307 307 308
304 304 303 303 302 301 300 302 302 302 302 303 302 301 301 301 301 301 302 304 305 304 303 304 304 304 304 305 307 305 304 304 305
303 302 302 302 301 300 299 301 301 301 301 301 300 300 299 298 298 298 299 300 301 302 302 302 302 301 301 301 302 301 299 298 301
303 302 302 302 300 299 299 299 300 300 300 300 299 297 297 297 297 297 298 298 298 299 299 298 296 296 297 300 298 296 295 293 294
303 302 301 301 300 300 300 299 299 300 300 299 297 296 296 296 296 296 295 295 295 294 296 298 295 294 295 295 294 293 293 293 294

GFSFLT1_sfc_thetae_105.txt.gz
Theta_e
333 333 334 338 340 341 342 343 345 346 348 350 353 353 354 355 356 354 352 354 353 354 356 361 361 363 363 359 359 358 359 358 359
329 330 334 337 340 342 341 340 345 346 347 349 351 351 354 354 354 354 354 356 357 355 359 357 360 361 361 361 361 359 359 357 359
330 332 335 336 337 341 343 342 345 346 348 347 349 352 353 354 355 356 356 356 356 357 358 360 359 360 361 361 361 362 361 362 362
332 332 334 337 340 342 343 344 346 348 350 350 345 350 354 355 355 356 357 356 357 357 358 359 358 359 358 359 360 362 362 361 361
335 336 337 340 340 341 342 341 343 347 348 348 350 350 352 352 355 356 355 355 357 358 357 360 360 360 360 361 360 361 362 359 359
330 333 336 337 340 340 341 340 340 345 345 346 350 350 350 353 354 355 356 356 357 360 359 360 359 357 358 359 360 360 361 361 361
329 330 331 332 337 338 338 338 338 340 342 343 344 344 344 344 350 351 350 352 353 355 359 360 359 358 357 358 357 356 356 356 357
324 326 328 327 329 337 339 340 336 334 339 341 341 341 340 338 341 346 347 348 348 350 354 355 358 358 358 357 354 353 355 355 355
322 323 324 324 327 329 332 336 336 337 339 341 341 340 339 341 341 345 342 344 344 346 348 350 353 354 356 355 353 329 332 345 358
322 322 322 323 324 324 324 327 329 329 331 333 332 333 336 338 334 334 336 339 340 341 343 345 345 348 350 350 344 324 326 334 357
320 321 321 320 319 319 320 320 319 320 320 321 322 323 327 329 330 330 333 332 331 332 336 339 342 346 347 338 328 319 323 331 355
324 324 318 316 315 317 317 316 318 318 317 320 319 317 318 321 325 326 328 326 326 328 330 334 340 342 335 329 322 314 317 332 338
320 318 316 314 314 313 313 314 315 313 313 313 311 313 314 318 321 325 325 327 328 327 329 326 323 323 322 316 316 310 311 322 329
318 315 313 313 312 311 311 313 313 312 313 311 312 313 312 314 317 317 318 319 321 323 322 319 319 318 318 314 312 308 308 309 320
316 315 313 312 313 313 314 315 314 313 312 314 314 315 315 316 317 317 317 316 316 318 321 319 318 317 316 314 314 307 307 307 308
316 316 315 315 313 312 312 313 313 311 311 312 312 312 312 312 313 314 315 315 314 313 316 313 312 314 313 312 312 310 306 305 306
312 313 312 312 311 310 309 310 311 310 310 311 311 309 309 309 309 309 311 311 311 310 310 309 309 308 306 307 307 304 304 304 306
306 307 310 311 310 309 308 309 309 309 310 310 307 306 306 306 306 306 305 306 307 306 303 303 304 305 305 304 300 297 297 296 300
305 305 307 308 309 309 308 308 308 308 310 309 306 305 304 304 304 304 304 303 302 298 297 296 295 295 298 301 295 294 293 292 293
307 306 307 307 306 308 308 307 307 308 308 307 306 304 304 302 302 302 302 301 301 298 297 296 294 294 293 293 292 292 292 292 293

GFSFLT1_sfc_thetae_108.txt.gz
Theta_e
335 336 337 338 342 345 346 349 351 352 354 357 358 358 359 360 361 353 362 357 355 353 362 354 361 360 359 361 364 362 363 359 358
334 336 337 338 342 345 347 349 351 352 353 356 357 356 359 359 359 357 363 357 365 357 361 358 360 360 360 361 361 363 364 356 359
335 335 337 339 341 345 348 349 350 352 354 355 355 355 357 355 356 359 359 359 357 361 362 363 361 360 360 362 363 364 363 359 360
336 337 336 338 343 346 348 349 347 348 354 355 353 355 356 356 355 354 359 360 357 359 362 366 360 360 361 359 360 363 364 361 359
338 339 338 340 340 342 344 348 350 348 350 351 355 355 355 357 356 355 353 356 356 359 358 363 362 361 362 360 360 362 361 359 358
338 338 339 341 340 341 346 345 345 349 350 351 355 355 355 355 356 353 354 356 358 358 359 358 359 362 359 357 359 359 360 360 360
337 338 339 342 344 342 341 346 342 343 344 346 352 353 353 355 356 353 356 357 359 358 358 359 358 358 360 359 359 358 359 358 358
332 334 334 336 341 343 343 344 341 341 342 344 344 344 350 352 356 358 357 357 358 358 360 360 360 358 359 360 361 355 360 360 360
329 330 331 331 333 342 343 342 342 342 340 342 344 342 341 340 344 345 350 353 354 355 355 359 360 359 358 358 355 328 331 345 361
327 328 330 328 326 331 340 341 341 339 343 345 343 343 341 339 340 337 339 342 347 350 351 353 353 355 355 348 345 322 327 333 358
327 327 324 323 322 320 329 334 339 337 338 336 334 333 335 337 337 337 335 336 338 341 347 349 352 344 344 339 329 318 322 333 357
328 325 324 320 318 319 320 321 323 323 322 324 324 325 327 330 330 333 336 335 337 338 335 344 337 339 337 329 322 312 314 334 348
325 323 317 315 316 316 315 317 319 317 317 319 317 319 324 328 329 331 332 333 336 340 334 328 327 326 324 317 319 308 309 321 338
324 319 316 316 313 312 314 315 315 314 314 313 314 315 320 323 328 329 332 333 337 334 326 324 322 320 319 316 318 312 307 307 322
321 319 318 317 312 312 315 316 317 315 314 317 319 319 318 320 323 324 325 328 330 328 325 323 324 323 322 320 317 307 306 306 307
316 314 315 316 313 313 316 319 319 317 317 321 322 321 321 322 323 324 325 325 325 323 325 322 320 320 318 318 318 316 306 306 307
316 315 312 314 314 314 313 317 319 319 319 320 319 318 318 319 319 319 319 318 319 319 319 319 317 316 315 312 309 303 304 307 309
319 317 317 316 316 314 315 316 316 316 317 317 315 316 315 314 314 315 314 309 311 309 304 305 313 312 310 310 306 300 296 296 302
312 316 316 316 316 315 315 315 314 315 316 315 313 311 311 310 310 310 309 306 302 297 297 295 294 293 299 300 295 294 293 292 293
310 311 314 315 314 313 313 312 313 314 314 314 313 311 310 308 308 308 307 307 304 300 297 295 294 293 293 293 292 293 292 292 292

GFSFLT1_sfc_thetae_111.txt.gz
Theta_e
334 336 337 337 338 340 345 345 347 347 354 356 357 356 358 359 359 354 354 356 352 352 357 353 365 361 362 361 362 362 364 359 358
331 336 336 338 341 344 345 346 348 349 355 356 356 355 358 359 359 358 357 358 360 359 362 358 360 359 359 360 362 363 365 357 360
332 335 337 338 339 341 346 347 348 351 354 356 356 355 356 356 356 358 358 359 358 360 350 363 363 360 359 360 361 363 365 364 362
334 336 338 340 340 342 347 348 350 350 352 356 356 355 357 356 354 354 357 357 358 359 360 361 362 362 360 360 360 361 362 366 364
337 338 339 340 341 347 350 351 353 354 353 354 356 359 361 356 357 355 352 355 356 360 360 361 361 362 361 360 360 365 361 359 359
338 339 340 339 340 347 349 350 352 352 353 355 357 358 356 356 360 354 354 354 355 358 361 361 359 360 361 363 361 362 363 361 360
339 341 342 341 342 342 345 348 351 352 351 355 355 354 353 360 360 357 355 357 356 356 359 360 360 361 360 360 361 361 360 360 359
339 340 341 342 342 344 347 347 345 343 344 344 346 346 350 351 360 363 361 360 359 357 357 359 359 359 359 360 357 354 355 359 359
334 335 337 342 344 345 344 347 344 343 343 348 347 346 347 351 356 352 358 359 355 360 358 358 358 357 358 359 346 328 329 343 358
331 334 333 334 338 341 347 346 345 345 346 349 347 347 346 343 347 341 343 346 352 355 354 357 357 357 352 347 339 319 323 333 354
332 332 330 331 326 333 340 344 345 343 345 344 347 344 343 342 340 337 337 338 338 340 345 352 353 347 344 339 327 315 318 326 359
333 331 328 326 324 322 326 333 338 339 342 339 335 331 333 338 340 340 339 335 334 337 342 339 341 341 333 329 320 311 315 333 353
329 330 325 319 319 319 319 321 329 326 324 325 323 327 329 332 334 334 338 341 342 344 339 334 330 324 324 319 319 308 310 322 341
326 321 317 318 317 314 315 317 318 315 315 314 317 319 326 331 334 336 337 338 339 334 328 327 325 320 318 316 317 310 308 308 323
319 316 315 314 313 315 317 317 315 315 315 318 319 320 321 324 330 330 333 336 334 330 325 323 321 322 325 323 320 308 307 307 308
318 318 316 316 314 314 317 320 318 314 319 323 323 321 321 323 325 327 331 331 331 327 329 329 329 327 324 321 319 314 308 306 307
321 321 320 318 317 315 314 320 318 319 319 323 324 322 323 324 324 324 326 325 326 325 324 324 323 322 320 319 315 309 308 308 310
316 314 314 317 317 317 315 318 317 318 321 322 321 321 320 321 319 321 313 306 308 312 303 300 318 314 313 310 309 301 296 297 304
316 314 315 315 315 316 316 316 316 318 321 320 318 316 316 315 316 315 314 309 302 296 296 295 294 294 300 301 296 295 294 293 293
314 317 318 316 314 315 316 315 314 317 317 317 317 315 314 312 312 312 311 308 305 301 297 295 294 293 294 294 293 293 293 292 293

GFSFLT1_sfc_thetae_114.txt.gz
Theta_e
334 334 337 337 336 341 341 344 346 351 356 357 358 359 362 362 360 358 358 363 355 352 351 361 365 363 365 365 366 365 368 366 363
331 333 335 337 343 342 342 344 345 355 356 357 357 357 361 362 363 362 364 362 348 354 361 359 363 365 364 365 363 368 368 364 365
332 333 334 336 339 342 339 341 344 355 357 357 357 356 358 358 360 362 366 366 361 359 357 350 347 360 363 362 362 368 367 363 361
331 331 333 338 338 341 343 346 349 352 354 356 355 356 356 358 356 358 362 362 364 365 351 346 358 364 364 363 365 366 365 365 362
335 336 338 341 342 340 343 349 349 342 351 351 354 356 355 358 357 359 357 360 361 361 363 360 361 365 367 366 366 363 366 363 360
335 337 338 340 338 341 341 347 343 341 338 349 357 353 358 354 356 357 360 359 361 364 364 366 362 364 366 364 364 362 361 364 364
334 334 340 339 345 345 335 338 352 355 356 357 361 358 356 358 357 353 353 358 362 361 366 362 362 362 362 365 361 361 361 361 359
335 338 338 338 341 346 349 348 347 347 348 344 344 346 345 353 353 351 354 353 357 364 361 363 362 360 360 362 351 339 340 347 352
338 337 336 341 344 344 346 347 347 344 343 345 343 342 346 350 354 354 348 349 350 359 363 361 362 360 358 348 335 326 329 339 351
336 336 339 339 340 345 347 345 347 344 345 347 347 347 349 350 349 346 346 344 347 344 354 357 354 352 347 334 326 317 321 332 354
333 334 333 332 333 336 346 346 345 346 348 347 349 347 346 345 343 340 338 338 339 341 343 346 342 341 337 330 318 314 318 328 356
331 331 330 326 324 328 328 335 341 345 340 342 341 340 342 343 343 340 337 334 336 339 337 333 331 329 324 324 312 311 314 331 356
329 328 325 322 320 319 322 326 328 329 326 324 325 329 334 336 337 340 341 340 338 338 334 327 323 321 319 316 309 309 310 322 339
324 322 318 318 317 316 316 319 319 317 320 318 321 324 326 332 332 333 335 335 336 333 330 326 325 320 317 312 312 306 308 308 318
317 315 316 316 315 314 316 317 316 314 315 319 320 321 322 324 327 332 333 330 329 329 327 325 323 321 321 317 312 308 307 307 309
316 314 313 315 315 316 317 317 316 316 319 321 321 321 323 322 325 328 331 330 330 325 325 321 321 321 322 320 317 314 308 307 308
316 316 315 315 314 314 315 317 318 318 319 322 320 320 321 321 322 312 308 313 324 315 314 325 330 326 324 320 315 307 306 308 312
318 318 317 318 317 316 316 317 317 320 321 321 319 320 321 319 319 314 306 298 299 304 297 297 315 312 308 310 308 298 296 296 301
314 315 317 316 317 317 316 316 316 318 321 324 321 319 318 318 320 319 315 308 299 296 296 295 294 295 301 297 296 295 294 293 293
314 314 314 314 314 315 315 316 317 319 319 319 320 316 322 316 316 313 312 309 304 298 296 296 294 294 294 294 294 294 293 293 293

GFSFLT1_sfc_thetae_117.txt.gz
Theta_e
330 331 332 333 331 338 339 343 344 348 347 346 345 349 349 348 345 343 347 348 346 344 346 348 351 352 352 353 354 351 353 350 350
328 330 331 334 337 336 340 339 340 348 348 348 346 348 350 349 350 349 347 349 344 346 352 355 349 349 352 351 353 352 353 350 349
328 330 332 333 337 338 339 341 339 349 350 349 348 349 351 349 349 350 351 350 342 348 348 343 338 336 344 351 353 355 352 349 346
327 331 330 333 337 339 339 340 339 349 349 348 348 349 349 348 349 351 350 351 350 351 345 338 336 338 347 350 350 351 351 349 349
328 332 331 331 335 337 336 336 340 348 350 349 348 348 349 349 349 348 351 349 350 349 340 341 349 351 352 351 352 353 352 351 350
330 329 332 333 335 337 341 338 343 341 344 344 345 348 348 348 347 348 348 349 348 350 349 350 352 352 352 352 352 351 350 350 350
330 330 330 334 335 337 339 341 341 338 338 342 339 339 342 344 344 344 346 348 349 350 352 351 351 351 352 351 348 347 349 350 351
330 331 331 335 335 335 336 336 338 343 344 341 344 343 344 342 345 346 346 349 348 349 351 350 349 349 347 341 336 334 338 348 345
329 332 335 338 335 335 334 335 335 343 341 342 343 343 340 344 343 343 342 343 344 347 347 346 346 344 336 331 327 327 326 336 343
332 330 334 336 339 339 334 337 341 340 340 342 339 340 343 343 339 337 336 340 341 343 346 346 341 333 325 317 316 319 321 331 341
330 330 328 328 329 334 342 344 342 342 343 342 341 342 339 339 337 336 335 335 339 342 341 337 332 328 320 311 310 315 319 330 343
326 325 323 323 324 328 332 341 341 340 337 339 339 337 337 336 335 333 334 336 336 332 328 324 324 319 313 308 306 312 320 336 335
322 322 322 320 320 324 325 327 330 328 325 326 327 332 334 337 336 335 333 332 334 331 326 322 320 316 310 310 305 310 315 325 334
318 316 317 318 316 316 318 320 323 320 321 319 322 326 331 331 333 332 333 333 332 327 321 318 315 312 309 308 307 307 309 313 318
315 316 316 316 314 315 318 319 319 317 317 320 322 324 325 327 331 333 330 327 327 326 321 317 314 313 311 309 305 308 308 309 311
314 314 315 316 316 315 316 318 318 316 318 321 321 322 323 323 314 314 323 326 325 323 322 320 319 319 313 311 308 304 307 308 310
312 313 314 316 316 314 315 317 317 318 320 320 319 319 319 313 307 303 304 308 304 304 303 310 321 319 313 306 299 297 298 300 301
315 315 316 315 314 313 313 315 316 319 320 320 319 319 318 315 307 301 296 295 300 300 295 296 306 302 301 302 296 292 294 293 293
314 314 316 315 313 313 312 312 312 314 318 319 317 317 316 317 313 309 305 301 296 297 297 297 295 296 295 294 295 295 294 293 293
313 313 312 312 312 313 313 313 313 312 315 314 316 317 316 317 315 312 304 301 299 296 296 297 295 294 294 295 294 294 293 293 294

GFSFLT1_sfc_thetae_120.txt.gz
Theta_e
329 331 331 331 335 337 339 341 343 345 342 344 345 345 344 345 342 339 343 344 344 344 344 345 348 351 349 348 350 349 349 347 348
327 331 331 332 334 338 340 340 343 345 342 343 342 346 345 344 343 340 344 347 344 343 346 350 349 350 349 349 351 348 349 347 345
324 329 330 331 333 337 338 343 344 345 345 344 343 344 347 346 345 347 347 346 341 343 346 346 345 343 344 348 349 350 348 347 344
322 326 329 331 333 335 339 342 343 346 346 346 343 346 346 344 345 347 348 347 342 345 344 339 338 336 340 348 348 348 348 347 345
324 327 332 333 334 335 336 337 338 346 347 346 345 346 346 345 345 347 346 346 348 349 343 342 339 337 345 346 349 348 348 347 349
325 328 331 333 335 334 335 335 339 345 346 346 346 346 346 344 344 344 345 345 347 348 342 339 340 348 348 349 350 349 349 349 349
328 327 330 329 332 334 334 338 341 343 345 343 343 343 344 345 343 345 344 346 346 346 346 346 346 349 348 346 347 345 347 349 349
328 328 330 328 331 336 337 339 340 340 339 340 339 338 338 340 342 343 344 344 342 345 348 347 348 344 340 338 336 335 339 344 345
329 329 330 334 334 337 337 340 340 340 340 340 341 338 340 342 343 342 342 343 344 344 344 344 342 334 330 327 331 327 327 336 339
327 329 331 332 334 334 336 335 342 340 340 343 341 340 341 342 340 338 338 340 340 340 341 338 329 322 320 317 318 320 320 329 340
324 325 327 325 326 333 335 339 341 342 342 341 340 340 340 338 336 335 335 338 339 340 338 332 327 321 318 316 318 318 320 329 335
323 322 322 322 324 327 336 340 340 341 340 338 339 337 337 335 336 335 335 330 328 324 328 325 321 316 313 312 313 316 325 329 327
319 319 319 318 320 322 325 333 338 333 332 336 336 335 335 335 334 333 333 332 328 324 320 315 313 311 309 310 309 314 321 325 321
316 317 316 317 317 316 319 325 330 326 327 326 329 332 334 335 334 335 332 333 326 322 319 316 312 311 310 308 308 309 315 320 324
315 315 315 315 316 317 319 321 325 322 320 323 327 329 329 330 332 332 330 327 322 319 315 311 307 305 303 303 306 308 309 310 315
313 314 314 315 315 315 318 320 321 319 320 323 324 322 317 316 315 315 321 324 323 321 318 315 313 310 307 304 301 303 307 307 310
312 314 314 313 315 314 314 317 319 320 320 321 320 313 310 308 306 305 307 304 304 305 308 318 319 312 305 300 296 296 300 301 300
312 313 311 314 311 310 312 315 316 318 319 320 317 314 309 305 302 299 297 297 299 299 296 298 308 311 306 299 292 293 295 295 295
313 312 314 312 311 311 312 313 312 313 318 318 317 316 314 310 307 303 300 297 297 297 297 297 296 296 299 295 295 295 294 293 293
313 312 312 310 311 311 311 311 311 312 314 313 312 311 312 312 310 305 302 300 298 295 299 297 295 295 295 295 294 294 292 293 295

GFSFLT1_sfc_thetae_123.txt.gz
Theta_e
329 330 332 330 331 335 338 339 340 342 341 340 339 341 342 341 341 340 341 343 342 342 343 343 346 348 346 346 346 347 347 346 346
327 330 330 331 332 335 337 339 341 341 342 340 341 341 341 342 341 338 340 344 343 342 344 346 346 349 348 347 348 347 345 345 343
326 330 332 332 333 335 337 339 341 343 342 342 343 343 342 342 341 339 340 344 344 342 342 346 348 347 346 347 346 347 346 345 344
326 328 331 331 332 337 338 338 340 342 342 342 341 342 343 342 342 343 345 344 343 341 344 343 343 343 342 345 346 347 347 345 344
328 330 330 331 333 334 336 338 341 342 343 342 343 343 344 342 342 344 345 344 344 340 344 341 339 337 338 345 346 347 346 346 347
325 327 328 331 332 332 335 338 340 342 343 343 344 343 344 343 341 342 343 343 346 344 344 342 341 339 340 346 347 347 347 347 347
323 324 326 330 331 332 334 336 336 342 343 345 344 344 344 343 341 342 342 343 343 344 342 340 338 340 345 348 348 348 347 348 346
327 325 328 329 330 332 333 335 336 342 340 341 343 343 343 342 342 342 342 343 344 344 345 345 345 345 343 341 340 337 339 342 346
326 326 328 329 331 334 334 335 337 340 339 338 340 340 339 338 340 340 338 338 340 340 341 342 340 339 335 334 333 325 328 332 341
325 327 330 330 331 335 336 337 340 339 339 340 338 338 339 340 340 339 338 339 339 338 340 337 332 328 327 326 323 321 320 328 338
324 324 324 326 329 332 332 337 340 340 341 340 337 336 339 339 337 337 337 337 336 338 340 330 326 324 326 325 323 322 321 329 337
321 321 322 322 324 327 336 337 339 339 339 339 338 337 337 336 336 335 335 331 327 325 326 323 318 316 316 320 322 319 325 329 326
319 319 318 318 320 322 324 333 338 337 336 336 337 338 337 335 336 335 331 328 323 319 315 312 312 311 314 314 317 318 321 322 318
316 316 317 318 318 318 321 327 335 330 331 330 334 336 336 335 335 334 332 328 324 319 316 315 315 313 311 310 311 317 316 316 318
315 315 315 316 317 318 320 325 326 323 322 327 330 332 333 333 334 335 332 326 321 317 313 308 304 304 304 305 306 310 312 316 315
313 315 315 316 315 317 319 321 324 321 322 325 324 323 320 317 316 319 326 323 320 315 310 306 305 303 303 300 302 304 307 308 310
313 314 314 315 315 313 315 319 320 321 322 319 316 313 310 309 309 309 308 308 311 319 315 313 310 306 303 299 299 301 302 303 305
312 313 314 314 311 312 312 314 316 318 319 316 312 309 307 304 303 302 299 301 302 302 299 303 313 308 302 296 295 296 297 298 300
308 312 313 311 311 310 310 313 313 314 316 316 312 309 308 306 304 302 301 300 298 298 298 297 296 299 300 296 296 295 294 293 294
311 308 312 308 309 309 310 310 309 311 313 313 313 312 311 309 306 303 302 302 302 300 298 297 295 295 295 295 295 294 293 293 295